Observation data for Sweetwater on 01/13/2021      Previous  Date  Next       Current Mesonet Observations  Soil Data  Daily Summary Page  Observations in Plain Language
KSW1 130600Z 21007KT 01/M01 A3023 RMK A01 T00101012  RH  085%=      5-min Rain = 0
KSW1 130601Z 21007KT 01/M01 A3023 RMK A01 T00101012  RH  085%=      5-min Rain = 0
KSW1 130602Z 21007KT 01/M01 A3023 RMK A01 T00091012  RH  086%=      5-min Rain = 0
KSW1 130603Z 21007KT 01/M01 A3023 RMK A01 T00091012  RH  086%=      5-min Rain = 0
KSW1 130604Z 21007KT 01/M01 A3023 RMK A01 T00091012  RH  086%=      5-min Rain = 0
KSW1 130605Z 21007KT 01/M01 A3023 RMK A01 T00081013  RH  086%=      5-min Rain = 0
KSW1 130606Z 21006KT 01/M01 A3023 RMK A01 T00081013  RH  086%=      5-min Rain = 0
KSW1 130607Z 21007KT 01/M01 A3023 RMK A01 T00071013  RH  086%=      5-min Rain = 0
KSW1 130608Z 21007KT 01/M01 A3023 RMK A01 T00071013  RH  086%=      5-min Rain = 0
KSW1 130609Z 21006KT 01/M01 A3023 RMK A01 T00071013  RH  086%=      5-min Rain = 0
KSW1 130610Z 22006KT 01/M01 A3023 RMK A01 T00081013  RH  086%=      5-min Rain = 0
KSW1 130611Z 22006KT 01/M01 A3023 RMK A01 T00081013  RH  086%=      5-min Rain = 0
KSW1 130612Z 22006KT 01/M01 A3023 RMK A01 T00071014  RH  086%=      5-min Rain = 0
KSW1 130613Z 23006KT 01/M01 A3023 RMK A01 T00071014  RH  086%=      5-min Rain = 0
KSW1 130614Z 23005KT 01/M01 A3023 RMK A01 T00061014  RH  086%=      5-min Rain = 0
KSW1 130615Z 22006KT 01/M01 A3023 RMK A01 T00061014  RH  086%=      5-min Rain = 0
KSW1 130616Z 22006KT 01/M01 A3023 RMK A01 T00061014  RH  087%=      5-min Rain = 0
KSW1 130617Z 21006KT 01/M01 A3023 RMK A01 T00061014  RH  087%=      5-min Rain = 0
KSW1 130618Z 21006KT 01/M01 A3023 RMK A01 T00061014  RH  087%=      5-min Rain = 0
KSW1 130619Z 21006KT 01/M01 A3023 RMK A01 T00071013  RH  086%=      5-min Rain = 0
KSW1 130620Z 21006KT 01/M01 A3023 RMK A01 T00081013  RH  086%=      5-min Rain = 0
KSW1 130621Z 21006KT 01/M01 A3023 RMK A01 T00091013  RH  086%=      5-min Rain = 0
KSW1 130622Z 22006KT 01/M01 A3023 RMK A01 T00091013  RH  085%=      5-min Rain = 0
KSW1 130623Z 21006KT 01/M01 A3023 RMK A01 T00091013  RH  085%=      5-min Rain = 0
KSW1 130624Z 21006KT 01/M01 A3023 RMK A01 T00081013  RH  085%=      5-min Rain = 0
KSW1 130625Z 21006KT 01/M01 A3023 RMK A01 T00081014  RH  085%=      5-min Rain = 0
KSW1 130626Z 22006KT 01/M01 A3023 RMK A01 T00081014  RH  085%=      5-min Rain = 0
KSW1 130627Z 22005KT 01/M02 A3023 RMK A01 T00071015  RH  085%=      5-min Rain = 0
KSW1 130628Z 22006KT 01/M02 A3023 RMK A01 T00061015  RH  085%=      5-min Rain = 0
KSW1 130629Z 23006KT 01/M02 A3023 RMK A01 T00051016  RH  086%=      5-min Rain = 0
KSW1 130630Z 23005KT 01/M02 A3023 RMK A01 T00051016  RH  086%=      5-min Rain = 0
KSW1 130631Z 23005KT 01/M02 A3023 RMK A01 T00051015  RH  086%=      5-min Rain = 0
KSW1 130632Z 23006KT 01/M02 A3023 RMK A01 T00051015  RH  086%=      5-min Rain = 0
KSW1 130633Z 23006KT 01/M02 A3023 RMK A01 T00051015  RH  087%=      5-min Rain = 0
KSW1 130634Z 23006KT 01/M02 A3023 RMK A01 T00051016  RH  086%=      5-min Rain = 0
KSW1 130635Z 23007KT 01/M02 A3023 RMK A01 T00051016  RH  086%=      5-min Rain = 0
KSW1 130636Z 23007KT 01/M02 A3023 RMK A01 T00061016  RH  086%=      5-min Rain = 0
KSW1 130637Z 23007KT 01/M02 A3023 RMK A01 T00071015  RH  085%=      5-min Rain = 0
KSW1 130638Z 23007KT 01/M02 A3023 RMK A01 T00081015  RH  085%=      5-min Rain = 0
KSW1 130639Z 23008KT 01/M02 A3023 RMK A01 T00071015  RH  085%=      5-min Rain = 0
KSW1 130640Z 23008KT 01/M01 A3022 RMK A01 T00091014  RH  085%=      5-min Rain = 0
KSW1 130641Z 23007KT 01/M02 A3022 RMK A01 T00091015  RH  084%=      5-min Rain = 0
KSW1 130642Z 23007KT 01/M02 A3022 RMK A01 T00091015  RH  084%=      5-min Rain = 0
KSW1 130643Z 22008KT 01/M02 A3022 RMK A01 T00101015  RH  084%=      5-min Rain = 0
KSW1 130644Z 23008KT 01/M01 A3022 RMK A01 T00111014  RH  083%=      5-min Rain = 0
KSW1 130645Z 22007KT 01/M01 A3022 RMK A01 T00131013  RH  082%=      5-min Rain = 0
KSW1 130646Z 23007KT 01/M01 A3022 RMK A01 T00141014  RH  082%=      5-min Rain = 0
KSW1 130647Z 23007KT 01/M01 A3022 RMK A01 T00141014  RH  082%=      5-min Rain = 0
KSW1 130648Z 22007KT 01/M02 A3022 RMK A01 T00131015  RH  082%=      5-min Rain = 0
KSW1 130649Z 23007KT 01/M01 A3022 RMK A01 T00131014  RH  082%=      5-min Rain = 0
KSW1 130650Z 23006KT 01/M02 A3022 RMK A01 T00131015  RH  082%=      5-min Rain = 0
KSW1 130651Z 23006KT 01/M02 A3022 RMK A01 T00131015  RH  082%=      5-min Rain = 0
KSW1 130652Z 23006KT 01/M02 A3022 RMK A01 T00111016  RH  082%=      5-min Rain = 0
KSW1 130653Z 23006KT 01/M02 A3022 RMK A01 T00101016  RH  083%=      5-min Rain = 0
KSW1 130654Z 23006KT 01/M02 A3022 RMK A01 T00091016  RH  083%=      5-min Rain = 0
KSW1 130655Z 22005KT 01/M02 A3022 RMK A01 T00091016  RH  084%=      5-min Rain = 0
KSW1 130656Z 22005KT 01/M02 A3022 RMK A01 T00081017  RH  084%=      5-min Rain = 0
KSW1 130657Z 23005KT 01/M02 A3022 RMK A01 T00061018  RH  084%=      5-min Rain = 0
KSW1 130658Z 22005KT 00/M02 A3021 RMK A01 T00041019  RH  084%=      5-min Rain = 0
KSW1 130659Z 22005KT 00/M02 A3021 RMK A01 T00021020  RH  085%=      5-min Rain = 0
KSW1 130700Z 22005KT 00/M02 A3021 RMK A01 T00011020  RH  086%=      5-min Rain = 0
KSW1 130701Z 22005KT 00/02 A3021 RMK A01 T00-00-20  RH  087%=      5-min Rain = 0
KSW1 130702Z 22005KT 00/02 A3021 RMK A01 T00-00-19  RH  088%=      5-min Rain = 0
KSW1 130703Z 22005KT M00/M02 A3021 RMK A01 T10011019  RH  088%=      5-min Rain = 0
KSW1 130704Z 23005KT M00/M02 A3021 RMK A01 T10011018  RH  088%=      5-min Rain = 0
KSW1 130705Z 22005KT M00/M02 A3021 RMK A01 T10011018  RH  089%=      5-min Rain = 0
KSW1 130706Z 22005KT M00/M02 A3021 RMK A01 T10011018  RH  089%=      5-min Rain = 0
KSW1 130707Z 22005KT M00/M02 A3021 RMK A01 T10021018  RH  089%=      5-min Rain = 0
KSW1 130708Z 22005KT M00/M02 A3021 RMK A01 T10021018  RH  089%=      5-min Rain = 0
KSW1 130709Z 22006KT M00/M02 A3021 RMK A01 T10021018  RH  089%=      5-min Rain = 0
KSW1 130710Z 22005KT M00/M02 A3021 RMK A01 T10011017  RH  089%=      5-min Rain = 0
KSW1 130711Z 22005KT 00/02 A3021 RMK A01 T00000-17  RH  088%=      5-min Rain = 0
KSW1 130712Z 21006KT 00/M02 A3021 RMK A01 T00011018  RH  087%=      5-min Rain = 0
KSW1 130713Z 22006KT 00/M02 A3021 RMK A01 T00011018  RH  087%=      5-min Rain = 0
KSW1 130714Z 22005KT 00/M02 A3021 RMK A01 T00021018  RH  086%=      5-min Rain = 0
KSW1 130715Z 22005KT 00/M02 A3021 RMK A01 T00021020  RH  086%=      5-min Rain = 0
KSW1 130716Z 22005KT 00/M02 A3021 RMK A01 T00011019  RH  086%=      5-min Rain = 0
KSW1 130717Z 22006KT 00/M02 A3021 RMK A01 T00011020  RH  086%=      5-min Rain = 0
KSW1 130718Z 23006KT 00/M02 A3021 RMK A01 T00011020  RH  086%=      5-min Rain = 0
KSW1 130719Z 22005KT 00/M02 A3021 RMK A01 T00021019  RH  086%=      5-min Rain = 0
KSW1 130720Z 23005KT 00/M02 A3021 RMK A01 T00021019  RH  085%=      5-min Rain = 0
KSW1 130721Z 22006KT 00/M02 A3021 RMK A01 T00031019  RH  085%=      5-min Rain = 0
KSW1 130722Z 23006KT 00/M02 A3021 RMK A01 T00031019  RH  085%=      5-min Rain = 0
KSW1 130723Z 22005KT 00/M02 A3021 RMK A01 T00041019  RH  085%=      5-min Rain = 0
KSW1 130724Z 23005KT 01/M02 A3021 RMK A01 T00051019  RH  084%=      5-min Rain = 0
KSW1 130725Z 23005KT 01/M02 A3021 RMK A01 T00051019  RH  084%=      5-min Rain = 0
KSW1 130726Z 23006KT 01/M02 A3021 RMK A01 T00051019  RH  084%=      5-min Rain = 0
KSW1 130727Z 23005KT 00/M02 A3021 RMK A01 T00041020  RH  084%=      5-min Rain = 0
KSW1 130728Z 23006KT 00/M02 A3021 RMK A01 T00041019  RH  085%=      5-min Rain = 0
KSW1 130729Z 24006KT 00/M02 A3021 RMK A01 T00041019  RH  084%=      5-min Rain = 0
KSW1 130730Z 23006KT 00/M02 A3021 RMK A01 T00041019  RH  084%=      5-min Rain = 0
KSW1 130731Z 24005KT 00/M02 A3021 RMK A01 T00041020  RH  084%=      5-min Rain = 0
KSW1 130732Z 23006KT 00/M02 A3021 RMK A01 T00031020  RH  084%=      5-min Rain = 0
KSW1 130733Z 24006KT 00/M02 A3021 RMK A01 T00031020  RH  085%=      5-min Rain = 0
KSW1 130734Z 24005KT 00/M02 A3021 RMK A01 T00031020  RH  085%=      5-min Rain = 0
KSW1 130735Z 24006KT 00/M02 A3021 RMK A01 T00031020  RH  085%=      5-min Rain = 0
KSW1 130736Z 23006KT 00/M02 A3021 RMK A01 T00031020  RH  085%=      5-min Rain = 0
KSW1 130737Z 23006KT 00/M02 A3021 RMK A01 T00031020  RH  084%=      5-min Rain = 0
KSW1 130738Z 23006KT 00/M02 A3021 RMK A01 T00031020  RH  084%=      5-min Rain = 0
KSW1 130739Z 23006KT 00/M02 A3021 RMK A01 T00031020  RH  084%=      5-min Rain = 0
KSW1 130740Z 23006KT 00/M02 A3021 RMK A01 T00021021  RH  085%=      5-min Rain = 0
KSW1 130741Z 23006KT 00/M02 A3021 RMK A01 T00021021  RH  085%=      5-min Rain = 0
KSW1 130742Z 23006KT 00/M02 A3021 RMK A01 T00021021  RH  085%=      5-min Rain = 0
KSW1 130743Z 23006KT 00/M02 A3021 RMK A01 T00011021  RH  085%=      5-min Rain = 0
KSW1 130744Z 22005KT 00/M02 A3021 RMK A01 T00011020  RH  085%=      5-min Rain = 0
KSW1 130745Z 23005KT 00/M02 A3021 RMK A01 T00011020  RH  085%=      5-min Rain = 0
KSW1 130746Z 23004KT 00/M02 A3021 RMK A01 T00011021  RH  085%=      5-min Rain = 0
KSW1 130747Z 23004KT M00/M02 A3021 RMK A01 T10011024  RH  085%=      5-min Rain = 0
KSW1 130748Z 23005KT M00/M03 A3021 RMK A01 T10031025  RH  085%=      5-min Rain = 0
KSW1 130749Z 22005KT M00/M02 A3021 RMK A01 T10041024  RH  087%=      5-min Rain = 0
KSW1 130750Z 22005KT M00/M02 A3021 RMK A01 T10041023  RH  087%=      5-min Rain = 0
KSW1 130751Z 23005KT M01/M02 A3021 RMK A01 T10051023  RH  087%=      5-min Rain = 0
KSW1 130752Z 23005KT M00/M02 A3021 RMK A01 T10041023  RH  087%=      5-min Rain = 0
KSW1 130753Z 23005KT M00/M02 A3021 RMK A01 T10031022  RH  087%=      5-min Rain = 0
KSW1 130754Z 23005KT M00/M02 A3021 RMK A01 T10031023  RH  087%=      5-min Rain = 0
KSW1 130755Z 23005KT M00/M02 A3021 RMK A01 T10031023  RH  087%=      5-min Rain = 0
KSW1 130756Z 23004KT M00/M02 A3021 RMK A01 T10031023  RH  087%=      5-min Rain = 0
KSW1 130757Z 23005KT M00/M02 A3021 RMK A01 T10031023  RH  087%=      5-min Rain = 0
KSW1 130758Z 23005KT M00/M02 A3021 RMK A01 T10041023  RH  087%=      5-min Rain = 0
KSW1 130759Z 23005KT M00/M02 A3021 RMK A01 T10041023  RH  087%=      5-min Rain = 0
KSW1 130800Z 23005KT M00/M02 A3021 RMK A01 T10041023  RH  087%=      5-min Rain = 0
KSW1 130801Z 23005KT M00/M02 A3021 RMK A01 T10031023  RH  087%=      5-min Rain = 0
KSW1 130802Z 23005KT M00/M02 A3021 RMK A01 T10031022  RH  087%=      5-min Rain = 0
KSW1 130803Z 23005KT M00/M02 A3021 RMK A01 T10031022  RH  087%=      5-min Rain = 0
KSW1 130804Z 24006KT M00/M02 A3021 RMK A01 T10021022  RH  087%=      5-min Rain = 0
KSW1 130805Z 24006KT M00/M02 A3021 RMK A01 T10021022  RH  086%=      5-min Rain = 0
KSW1 130806Z 24005KT M00/M02 A3021 RMK A01 T10011022  RH  086%=      5-min Rain = 0
KSW1 130807Z 25006KT M00/M02 A3021 RMK A01 T10021023  RH  086%=      5-min Rain = 0
KSW1 130808Z 25006KT M00/M02 A3021 RMK A01 T10031023  RH  086%=      5-min Rain = 0
KSW1 130809Z 25006KT M00/M02 A3021 RMK A01 T10041024  RH  086%=      5-min Rain = 0
KSW1 130810Z 25006KT M00/M02 A3021 RMK A01 T10041024  RH  087%=      5-min Rain = 0
KSW1 130811Z 24006KT M01/M02 A3021 RMK A01 T10051023  RH  087%=      5-min Rain = 0
KSW1 130812Z 24006KT M00/M02 A3021 RMK A01 T10041023  RH  087%=      5-min Rain = 0
KSW1 130813Z 24006KT M00/M02 A3021 RMK A01 T10041023  RH  087%=      5-min Rain = 0
KSW1 130814Z 24006KT M00/M02 A3021 RMK A01 T10041023  RH  087%=      5-min Rain = 0
KSW1 130815Z 24006KT M00/M02 A3021 RMK A01 T10031023  RH  087%=      5-min Rain = 0
KSW1 130816Z 24006KT M00/M02 A3021 RMK A01 T10031023  RH  087%=      5-min Rain = 0
KSW1 130817Z 24006KT M00/M02 A3021 RMK A01 T10041023  RH  087%=      5-min Rain = 0
KSW1 130818Z 25006KT M00/M02 A3021 RMK A01 T10041024  RH  087%=      5-min Rain = 0
KSW1 130819Z 25006KT M01/M02 A3021 RMK A01 T10051024  RH  087%=      5-min Rain = 0
KSW1 130820Z 25006KT M01/M02 A3021 RMK A01 T10051024  RH  087%=      5-min Rain = 0
KSW1 130821Z 25006KT M01/M03 A3021 RMK A01 T10061025  RH  087%=      5-min Rain = 0
KSW1 130822Z 25006KT M01/M03 A3021 RMK A01 T10071025  RH  088%=      5-min Rain = 0
KSW1 130823Z 24006KT M01/M03 A3021 RMK A01 T10071025  RH  088%=      5-min Rain = 0
KSW1 130824Z 24006KT M01/M03 A3021 RMK A01 T10081025  RH  088%=      5-min Rain = 0
KSW1 130825Z 24006KT M01/M03 A3021 RMK A01 T10081025  RH  088%=      5-min Rain = 0
KSW1 130826Z 24006KT M01/M02 A3021 RMK A01 T10071024  RH  088%=      5-min Rain = 0
KSW1 130827Z 24006KT M01/M03 A3021 RMK A01 T10071025  RH  088%=      5-min Rain = 0
KSW1 130828Z 24006KT M01/M02 A3021 RMK A01 T10071024  RH  088%=      5-min Rain = 0
KSW1 130829Z 24006KT M01/M02 A3021 RMK A01 T10061024  RH  088%=      5-min Rain = 0
KSW1 130830Z 24006KT M01/M02 A3021 RMK A01 T10061024  RH  087%=      5-min Rain = 0
KSW1 130831Z 24006KT M01/M03 A3021 RMK A01 T10061025  RH  087%=      5-min Rain = 0
KSW1 130832Z 24006KT M01/M03 A3021 RMK A01 T10051025  RH  087%=      5-min Rain = 0
KSW1 130833Z 24006KT M01/M03 A3021 RMK A01 T10061025  RH  087%=      5-min Rain = 0
KSW1 130834Z 24006KT M01/M03 A3021 RMK A01 T10061025  RH  087%=      5-min Rain = 0
KSW1 130835Z 24006KT M01/M03 A3021 RMK A01 T10061025  RH  087%=      5-min Rain = 0
KSW1 130836Z 24006KT M01/M03 A3021 RMK A01 T10071026  RH  087%=      5-min Rain = 0
KSW1 130837Z 23006KT M01/M03 A3021 RMK A01 T10071026  RH  088%=      5-min Rain = 0
KSW1 130838Z 23007KT M01/M03 A3021 RMK A01 T10081026  RH  088%=      5-min Rain = 0
KSW1 130839Z 23006KT M01/M03 A3021 RMK A01 T10081025  RH  088%=      5-min Rain = 0
KSW1 130840Z 23007KT M01/M03 A3021 RMK A01 T10081025  RH  088%=      5-min Rain = 0
KSW1 130841Z 23007KT M01/M03 A3021 RMK A01 T10081025  RH  088%=      5-min Rain = 0
KSW1 130842Z 23007KT M01/M03 A3021 RMK A01 T10071025  RH  088%=      5-min Rain = 0
KSW1 130843Z 23006KT M01/M03 A3021 RMK A01 T10071025  RH  088%=      5-min Rain = 0
KSW1 130844Z 23007KT M01/M03 A3021 RMK A01 T10071026  RH  087%=      5-min Rain = 0
KSW1 130845Z 23006KT M01/M03 A3021 RMK A01 T10071026  RH  087%=      5-min Rain = 0
KSW1 130846Z 23006KT M01/M03 A3021 RMK A01 T10071026  RH  087%=      5-min Rain = 0
KSW1 130847Z 23006KT M01/M03 A3021 RMK A01 T10071026  RH  087%=      5-min Rain = 0
KSW1 130848Z 23006KT M01/M03 A3021 RMK A01 T10071026  RH  087%=      5-min Rain = 0
KSW1 130849Z 23006KT M01/M03 A3021 RMK A01 T10081027  RH  087%=      5-min Rain = 0
KSW1 130850Z 23007KT M01/M03 A3021 RMK A01 T10081026  RH  087%=      5-min Rain = 0
KSW1 130851Z 23007KT M01/M03 A3021 RMK A01 T10081027  RH  087%=      5-min Rain = 0
KSW1 130852Z 23007KT M01/M03 A3021 RMK A01 T10071026  RH  087%=      5-min Rain = 0
KSW1 130853Z 23007KT M01/M03 A3021 RMK A01 T10071027  RH  087%=      5-min Rain = 0
KSW1 130854Z 23006KT M01/M03 A3021 RMK A01 T10081027  RH  087%=      5-min Rain = 0
KSW1 130855Z 24006KT M01/M03 A3021 RMK A01 T10071027  RH  087%=      5-min Rain = 0
KSW1 130856Z 24006KT M01/M03 A3022 RMK A01 T10081027  RH  087%=      5-min Rain = 0
KSW1 130857Z 24006KT M01/M03 A3022 RMK A01 T10081027  RH  087%=      5-min Rain = 0
KSW1 130858Z 24006KT M01/M03 A3022 RMK A01 T10081027  RH  087%=      5-min Rain = 0
KSW1 130859Z 25006KT M01/M03 A3022 RMK A01 T10081027  RH  087%=      5-min Rain = 0
KSW1 130900Z 25006KT M01/M03 A3022 RMK A01 T10091028  RH  087%=      5-min Rain = 0
KSW1 130901Z 25006KT M01/M03 A3022 RMK A01 T10091027  RH  087%=      5-min Rain = 0
KSW1 130902Z 25006KT M01/M03 A3022 RMK A01 T10091027  RH  088%=      5-min Rain = 0
KSW1 130903Z 25006KT M01/M03 A3022 RMK A01 T10091027  RH  088%=      5-min Rain = 0
KSW1 130904Z 25007KT M01/M03 A3022 RMK A01 T10091027  RH  088%=      5-min Rain = 0
KSW1 130905Z 25007KT M01/M03 A3022 RMK A01 T10101028  RH  088%=      5-min Rain = 0
KSW1 130906Z 25007KT M01/M03 A3022 RMK A01 T10091027  RH  087%=      5-min Rain = 0
KSW1 130907Z 25007KT M01/M03 A3022 RMK A01 T10091028  RH  087%=      5-min Rain = 0
KSW1 130908Z 25007KT M01/M03 A3022 RMK A01 T10091027  RH  087%=      5-min Rain = 0
KSW1 130909Z 25007KT M01/M03 A3022 RMK A01 T10091027  RH  087%=      5-min Rain = 0
KSW1 130910Z 25007KT M01/M03 A3022 RMK A01 T10091027  RH  087%=      5-min Rain = 0
KSW1 130911Z 25006KT M01/M03 A3022 RMK A01 T10091027  RH  087%=      5-min Rain = 0
KSW1 130912Z 25006KT M01/M03 A3022 RMK A01 T10091027  RH  087%=      5-min Rain = 0
KSW1 130913Z 25006KT M01/M03 A3022 RMK A01 T10091027  RH  088%=      5-min Rain = 0
KSW1 130914Z 25006KT M01/M03 A3022 RMK A01 T10101027  RH  088%=      5-min Rain = 0
KSW1 130915Z 25006KT M01/M03 A3022 RMK A01 T10101027  RH  088%=      5-min Rain = 0
KSW1 130916Z 25006KT M01/M03 A3022 RMK A01 T10111028  RH  088%=      5-min Rain = 0
KSW1 130917Z 25006KT M01/M03 A3022 RMK A01 T10111028  RH  088%=      5-min Rain = 0
KSW1 130918Z 24006KT M01/M03 A3022 RMK A01 T10111027  RH  089%=      5-min Rain = 0
KSW1 130919Z 24007KT M01/M03 A3022 RMK A01 T10111027  RH  089%=      5-min Rain = 0
KSW1 130920Z 25006KT M01/M03 A3022 RMK A01 T10111027  RH  089%=      5-min Rain = 0
KSW1 130921Z 24007KT M01/M03 A3022 RMK A01 T10111027  RH  089%=      5-min Rain = 0
KSW1 130922Z 24006KT M01/M03 A3022 RMK A01 T10111027  RH  089%=      5-min Rain = 0
KSW1 130923Z 25006KT M01/M03 A3022 RMK A01 T10111026  RH  090%=      5-min Rain = 0
KSW1 130924Z 24006KT M01/M03 A3022 RMK A01 T10111026  RH  090%=      5-min Rain = 0
KSW1 130925Z 24006KT M01/M03 A3022 RMK A01 T10121026  RH  090%=      5-min Rain = 0
KSW1 130926Z 25006KT M01/M03 A3022 RMK A01 T10131027  RH  090%=      5-min Rain = 0
KSW1 130927Z 25006KT M01/M03 A3022 RMK A01 T10141028  RH  091%=      5-min Rain = 0
KSW1 130928Z 25006KT M02/M03 A3022 RMK A01 T10161029  RH  091%=      5-min Rain = 0
KSW1 130929Z 25006KT M02/M03 A3021 RMK A01 T10171030  RH  091%=      5-min Rain = 0
KSW1 130930Z 24006KT M02/M03 A3021 RMK A01 T10191030  RH  092%=      5-min Rain = 0
KSW1 130931Z 24006KT M02/M03 A3021 RMK A01 T10191030  RH  093%=      5-min Rain = 0
KSW1 130932Z 24006KT M02/M03 A3021 RMK A01 T10201030  RH  093%=      5-min Rain = 0
KSW1 130933Z 24006KT M02/M03 A3021 RMK A01 T10211030  RH  093%=      5-min Rain = 0
KSW1 130934Z 24006KT M02/M03 A3021 RMK A01 T10211030  RH  094%=      5-min Rain = 0
KSW1 130935Z 23006KT M02/M03 A3021 RMK A01 T10221031  RH  094%=      5-min Rain = 0
KSW1 130936Z 23006KT M02/M03 A3021 RMK A01 T10221031  RH  094%=      5-min Rain = 0
KSW1 130937Z 23006KT M02/M03 A3021 RMK A01 T10221030  RH  094%=      5-min Rain = 0
KSW1 130938Z 23006KT M02/M03 A3021 RMK A01 T10221031  RH  094%=      5-min Rain = 0
KSW1 130939Z 23006KT M02/M03 A3021 RMK A01 T10221030  RH  094%=      5-min Rain = 0
KSW1 130940Z 23006KT M02/M03 A3021 RMK A01 T10221030  RH  094%=      5-min Rain = 0
KSW1 130941Z 23006KT M02/M03 A3021 RMK A01 T10211029  RH  094%=      5-min Rain = 0
KSW1 130942Z 23006KT M02/M03 A3021 RMK A01 T10201029  RH  094%=      5-min Rain = 0
KSW1 130943Z 23006KT M02/M03 A3021 RMK A01 T10191028  RH  094%=      5-min Rain = 0
KSW1 130944Z 23006KT M02/M03 A3021 RMK A01 T10191029  RH  093%=      5-min Rain = 0
KSW1 130945Z 23006KT M02/M03 A3021 RMK A01 T10181029  RH  093%=      5-min Rain = 0
KSW1 130946Z 23006KT M02/M03 A3021 RMK A01 T10181029  RH  092%=      5-min Rain = 0
KSW1 130947Z 22006KT M02/M03 A3021 RMK A01 T10181030  RH  092%=      5-min Rain = 0
KSW1 130948Z 22006KT M02/M03 A3021 RMK A01 T10181029  RH  092%=      5-min Rain = 0
KSW1 130949Z 22006KT M02/M03 A3021 RMK A01 T10161028  RH  091%=      5-min Rain = 0
KSW1 130950Z 22006KT M02/M03 A3021 RMK A01 T10151028  RH  091%=      5-min Rain = 0
KSW1 130951Z 22007KT M01/M03 A3021 RMK A01 T10131027  RH  090%=      5-min Rain = 0
KSW1 130952Z 22007KT M01/M03 A3021 RMK A01 T10121027  RH  089%=      5-min Rain = 0
KSW1 130953Z 22006KT M01/M03 A3021 RMK A01 T10111027  RH  089%=      5-min Rain = 0
KSW1 130954Z 22006KT M01/M03 A3021 RMK A01 T10101027  RH  088%=      5-min Rain = 0
KSW1 130955Z 22006KT M01/M03 A3021 RMK A01 T10101028  RH  087%=      5-min Rain = 0
KSW1 130956Z 23006KT M01/M03 A3021 RMK A01 T10101028  RH  087%=      5-min Rain = 0
KSW1 130957Z 23006KT M01/M03 A3021 RMK A01 T10101028  RH  087%=      5-min Rain = 0
KSW1 130958Z 23006KT M01/M03 A3021 RMK A01 T10111030  RH  087%=      5-min Rain = 0
KSW1 130959Z 23007KT M01/M03 A3021 RMK A01 T10111030  RH  087%=      5-min Rain = 0
KSW1 131000Z 23006KT M01/M03 A3021 RMK A01 T10121030  RH  087%=      5-min Rain = 0
KSW1 131001Z 23006KT M01/M03 A3021 RMK A01 T10121030  RH  088%=      5-min Rain = 0
KSW1 131002Z 23006KT M01/M03 A3021 RMK A01 T10121030  RH  088%=      5-min Rain = 0
KSW1 131003Z 23006KT M01/M03 A3021 RMK A01 T10121030  RH  088%=      5-min Rain = 0
KSW1 131004Z 23006KT M01/M03 A3021 RMK A01 T10121030  RH  088%=      5-min Rain = 0
KSW1 131005Z 23006KT M01/M03 A3021 RMK A01 T10121030  RH  088%=      5-min Rain = 0
KSW1 131006Z 23006KT M01/M03 A3021 RMK A01 T10121030  RH  088%=      5-min Rain = 0
KSW1 131007Z 23006KT M01/M03 A302 RMK A01 T10131031  RH  088%=      5-min Rain = 0
KSW1 131008Z 23006KT M01/M03 A302 RMK A01 T10131031  RH  088%=      5-min Rain = 0
KSW1 131009Z 23006KT M01/M03 A302 RMK A01 T10131030  RH  088%=      5-min Rain = 0
KSW1 131010Z 23006KT M01/M03 A302 RMK A01 T10131030  RH  088%=      5-min Rain = 0
KSW1 131011Z 23006KT M01/M03 A302 RMK A01 T10121029  RH  088%=      5-min Rain = 0
KSW1 131012Z 23006KT M01/M03 A302 RMK A01 T10111028  RH  088%=      5-min Rain = 0
KSW1 131013Z 23006KT M01/M03 A302 RMK A01 T10101028  RH  088%=      5-min Rain = 0
KSW1 131014Z 23006KT M01/M03 A302 RMK A01 T10101028  RH  088%=      5-min Rain = 0
KSW1 131015Z 22005KT M01/M03 A302 RMK A01 T10091028  RH  087%=      5-min Rain = 0
KSW1 131016Z 22006KT M01/M03 A302 RMK A01 T10091028  RH  087%=      5-min Rain = 0
KSW1 131017Z 22006KT M01/M03 A302 RMK A01 T10091028  RH  087%=      5-min Rain = 0
KSW1 131018Z 22006KT M01/M03 A302 RMK A01 T10091028  RH  087%=      5-min Rain = 0
KSW1 131019Z 22006KT M01/M03 A302 RMK A01 T10091029  RH  087%=      5-min Rain = 0
KSW1 131020Z 22006KT M01/M03 A302 RMK A01 T10091029  RH  087%=      5-min Rain = 0
KSW1 131021Z 22006KT M01/M03 A302 RMK A01 T10101029  RH  087%=      5-min Rain = 0
KSW1 131022Z 22006KT M01/M03 A302 RMK A01 T10101029  RH  087%=      5-min Rain = 0
KSW1 131023Z 22006KT M01/M03 A302 RMK A01 T10101030  RH  087%=      5-min Rain = 0
KSW1 131024Z 22006KT M01/M03 A302 RMK A01 T10111029  RH  087%=      5-min Rain = 0
KSW1 131025Z 22006KT M01/M03 A302 RMK A01 T10101029  RH  087%=      5-min Rain = 0
KSW1 131026Z 22007KT M01/M03 A302 RMK A01 T10101029  RH  087%=      5-min Rain = 0
KSW1 131027Z 22006KT M01/M03 A3019 RMK A01 T10101029  RH  087%=      5-min Rain = 0
KSW1 131028Z 22007KT M01/M03 A3019 RMK A01 T10101029  RH  087%=      5-min Rain = 0
KSW1 131029Z 22007KT M01/M03 A3019 RMK A01 T10091028  RH  087%=      5-min Rain = 0
KSW1 131030Z 23006KT M01/M03 A3019 RMK A01 T10091028  RH  087%=      5-min Rain = 0
KSW1 131031Z 23007KT M01/M03 A3019 RMK A01 T10091029  RH  086%=      5-min Rain = 0
KSW1 131032Z 23007KT M01/M03 A3019 RMK A01 T10111030  RH  087%=      5-min Rain = 0
KSW1 131033Z 23007KT M01/M03 A3019 RMK A01 T10111030  RH  087%=      5-min Rain = 0
KSW1 131034Z 23007KT M01/M03 A3019 RMK A01 T10121030  RH  087%=      5-min Rain = 0
KSW1 131035Z 23007KT M01/M03 A3019 RMK A01 T10111030  RH  087%=      5-min Rain = 0
KSW1 131036Z 23007KT M01/M03 A3019 RMK A01 T10121030  RH  087%=      5-min Rain = 0
KSW1 131037Z 23006KT M01/M03 A3019 RMK A01 T10111030  RH  087%=      5-min Rain = 0
KSW1 131038Z 23007KT M01/M03 A3019 RMK A01 T10111030  RH  087%=      5-min Rain = 0
KSW1 131039Z 23007KT M01/M03 A3019 RMK A01 T10121031  RH  087%=      5-min Rain = 0
KSW1 131040Z 23007KT M01/M03 A3019 RMK A01 T10121030  RH  087%=      5-min Rain = 0
KSW1 131041Z 23007KT M01/M03 A3019 RMK A01 T10121030  RH  087%=      5-min Rain = 0
KSW1 131042Z 23006KT M01/M03 A3019 RMK A01 T10121031  RH  087%=      5-min Rain = 0
KSW1 131043Z 23006KT M01/M03 A3019 RMK A01 T10121030  RH  087%=      5-min Rain = 0
KSW1 131044Z 23007KT M01/M03 A3019 RMK A01 T10121030  RH  087%=      5-min Rain = 0
KSW1 131045Z 23006KT M01/M03 A3019 RMK A01 T10111030  RH  087%=      5-min Rain = 0
KSW1 131046Z 23007KT M01/M03 A3019 RMK A01 T10111030  RH  087%=      5-min Rain = 0
KSW1 131047Z 23006KT M01/M03 A3019 RMK A01 T10111031  RH  087%=      5-min Rain = 0
KSW1 131048Z 23006KT M01/M03 A3019 RMK A01 T10111031  RH  087%=      5-min Rain = 0
KSW1 131049Z 23007KT M01/M03 A3019 RMK A01 T10111031  RH  087%=      5-min Rain = 0
KSW1 131050Z 23006KT M01/M03 A3019 RMK A01 T10111031  RH  086%=      5-min Rain = 0
KSW1 131051Z 23007KT M01/M03 A3019 RMK A01 T10121031  RH  087%=      5-min Rain = 0
KSW1 131052Z 23006KT M01/M03 A3019 RMK A01 T10121031  RH  087%=      5-min Rain = 0
KSW1 131053Z 23007KT M01/M03 A3019 RMK A01 T10121031  RH  087%=      5-min Rain = 0
KSW1 131054Z 23007KT M01/M03 A3019 RMK A01 T10121031  RH  087%=      5-min Rain = 0
KSW1 131055Z 23007KT M01/M03 A3019 RMK A01 T10111031  RH  086%=      5-min Rain = 0
KSW1 131056Z 23007KT M01/M03 A3019 RMK A01 T10121031  RH  086%=      5-min Rain = 0
KSW1 131057Z 23007KT M01/M03 A3019 RMK A01 T10111031  RH  086%=      5-min Rain = 0
KSW1 131058Z 23007KT M01/M03 A3019 RMK A01 T10111031  RH  087%=      5-min Rain = 0
KSW1 131059Z 23006KT M01/M03 A3019 RMK A01 T10101030  RH  086%=      5-min Rain = 0
KSW1 131100Z 23006KT M01/M03 A3019 RMK A01 T10101030  RH  086%=      5-min Rain = 0
KSW1 131101Z 23006KT M01/M03 A3019 RMK A01 T10101031  RH  086%=      5-min Rain = 0
KSW1 131102Z 23006KT M01/M03 A3019 RMK A01 T10101030  RH  086%=      5-min Rain = 0
KSW1 131103Z 23006KT M01/M03 A3019 RMK A01 T10101030  RH  086%=      5-min Rain = 0
KSW1 131104Z 23006KT M01/M03 A3019 RMK A01 T10111031  RH  086%=      5-min Rain = 0
KSW1 131105Z 23006KT M01/M03 A3019 RMK A01 T10111031  RH  086%=      5-min Rain = 0
KSW1 131106Z 23006KT M01/M03 A3019 RMK A01 T10101030  RH  086%=      5-min Rain = 0
KSW1 131107Z 23006KT M01/M03 A3019 RMK A01 T10111031  RH  086%=      5-min Rain = 0
KSW1 131108Z 23006KT M01/M03 A3019 RMK A01 T10111031  RH  086%=      5-min Rain = 0
KSW1 131109Z 23006KT M01/M03 A3019 RMK A01 T10121032  RH  086%=      5-min Rain = 0
KSW1 131110Z 23006KT M01/M03 A3019 RMK A01 T10121032  RH  086%=      5-min Rain = 0
KSW1 131111Z 23006KT M01/M03 A3019 RMK A01 T10121032  RH  087%=      5-min Rain = 0
KSW1 131112Z 23007KT M01/M03 A3019 RMK A01 T10121032  RH  087%=      5-min Rain = 0
KSW1 131113Z 23006KT M01/M03 A3019 RMK A01 T10131032  RH  087%=      5-min Rain = 0
KSW1 131114Z 24006KT M01/M03 A3019 RMK A01 T10131032  RH  087%=      5-min Rain = 0
KSW1 131115Z 24006KT M01/M03 A3019 RMK A01 T10131032  RH  087%=      5-min Rain = 0
KSW1 131116Z 23006KT M01/M03 A3019 RMK A01 T10121032  RH  087%=      5-min Rain = 0
KSW1 131117Z 23007KT M01/M03 A3019 RMK A01 T10121031  RH  087%=      5-min Rain = 0
KSW1 131118Z 23007KT M01/M03 A3019 RMK A01 T10121032  RH  087%=      5-min Rain = 0
KSW1 131119Z 23007KT M01/M03 A3019 RMK A01 T10121032  RH  086%=      5-min Rain = 0
KSW1 131120Z 23007KT M01/M03 A3019 RMK A01 T10121032  RH  086%=      5-min Rain = 0
KSW1 131121Z 23007KT M01/M03 A3019 RMK A01 T10121032  RH  086%=      5-min Rain = 0
KSW1 131122Z 22006KT M01/M03 A3019 RMK A01 T10111031  RH  087%=      5-min Rain = 0
KSW1 131123Z 22006KT M01/M03 A3019 RMK A01 T10101029  RH  087%=      5-min Rain = 0
KSW1 131124Z 22006KT M01/M03 A3019 RMK A01 T10091029  RH  086%=      5-min Rain = 0
KSW1 131125Z 21006KT M01/M03 A3019 RMK A01 T10081030  RH  085%=      5-min Rain = 0
KSW1 131126Z 21006KT M01/M03 A3018 RMK A01 T10081030  RH  085%=      5-min Rain = 0
KSW1 131127Z 21007KT M01/M03 A3018 RMK A01 T10101031  RH  085%=      5-min Rain = 0
KSW1 131128Z 21007KT M01/M03 A3018 RMK A01 T10101032  RH  085%=      5-min Rain = 0
KSW1 131129Z 21007KT M01/M03 A3018 RMK A01 T10111032  RH  086%=      5-min Rain = 0
KSW1 131130Z 21007KT M01/M03 A3018 RMK A01 T10111031  RH  086%=      5-min Rain = 0
KSW1 131131Z 21007KT M01/M03 A3018 RMK A01 T10111031  RH  086%=      5-min Rain = 0
KSW1 131132Z 21008KT M01/M03 A3018 RMK A01 T10111031  RH  086%=      5-min Rain = 0
KSW1 131133Z 21008KT M01/M03 A3018 RMK A01 T10101030  RH  086%=      5-min Rain = 0
KSW1 131134Z 22008KT M01/M03 A3018 RMK A01 T10091029  RH  086%=      5-min Rain = 0
KSW1 131135Z 22008KT M01/M03 A3018 RMK A01 T10081029  RH  086%=      5-min Rain = 0
KSW1 131136Z 22008KT M01/M03 A3018 RMK A01 T10071029  RH  085%=      5-min Rain = 0
KSW1 131137Z 22008KT M01/M03 A3018 RMK A01 T10061028  RH  085%=      5-min Rain = 0
KSW1 131138Z 22007KT M01/M03 A3018 RMK A01 T10051028  RH  084%=      5-min Rain = 0
KSW1 131139Z 22007KT M01/M03 A3018 RMK A01 T10051029  RH  084%=      5-min Rain = 0
KSW1 131140Z 22007KT M00/M03 A3018 RMK A01 T10041029  RH  084%=      5-min Rain = 0
KSW1 131141Z 22007KT M00/M03 A3018 RMK A01 T10041029  RH  084%=      5-min Rain = 0
KSW1 131142Z 22007KT M01/M03 A3018 RMK A01 T10051029  RH  083%=      5-min Rain = 0
KSW1 131143Z 22007KT M00/M03 A3018 RMK A01 T10041029  RH  084%=      5-min Rain = 0
KSW1 131144Z 22007KT M01/M03 A3018 RMK A01 T10051029  RH  084%=      5-min Rain = 0
KSW1 131145Z 22007KT M01/M03 A3018 RMK A01 T10051029  RH  084%=      5-min Rain = 0
KSW1 131146Z 22007KT M01/M03 A3018 RMK A01 T10051030  RH  084%=      5-min Rain = 0
KSW1 131147Z 22007KT M01/M03 A3018 RMK A01 T10061030  RH  084%=      5-min Rain = 0
KSW1 131148Z 23007KT M01/M03 A3018 RMK A01 T10061030  RH  084%=      5-min Rain = 0
KSW1 131149Z 23008KT M01/M03 A3018 RMK A01 T10071030  RH  084%=      5-min Rain = 0
KSW1 131150Z 22008KT M01/M03 A3018 RMK A01 T10061030  RH  084%=      5-min Rain = 0
KSW1 131151Z 23008KT M01/M03 A3018 RMK A01 T10051029  RH  084%=      5-min Rain = 0
KSW1 131152Z 22008KT M00/M03 A3018 RMK A01 T10041029  RH  083%=      5-min Rain = 0
KSW1 131153Z 22008KT M00/M03 A3018 RMK A01 T10031029  RH  083%=      5-min Rain = 0
KSW1 131154Z 22008KT M00/M03 A3018 RMK A01 T10021029  RH  082%=      5-min Rain = 0
KSW1 131155Z 22007KT M00/M03 A3018 RMK A01 T10011029  RH  082%=      5-min Rain = 0
KSW1 131156Z 22009KT 00/03 A3018 RMK A01 T00-00-29  RH  081%=      5-min Rain = 0
KSW1 131157Z 22008KT 00/03 A3018 RMK A01 T00000-28  RH  081%=      5-min Rain = 0
KSW1 131158Z 22008KT 00/M03 A3018 RMK A01 T00011029  RH  081%=      5-min Rain = 0
KSW1 131159Z 22007KT 00/M03 A3018 RMK A01 T00011029  RH  080%=      5-min Rain = 0
KSW1 131200Z 22009KT 00/03 A3018 RMK A01 T00000-29  RH  081%=      5-min Rain = 0
KSW1 131201Z 22008KT 00/M03 A3018 RMK A01 T00011029  RH  081%=      5-min Rain = 0
KSW1 131202Z 22009KT 00/M03 A3017 RMK A01 T00011029  RH  080%=      5-min Rain = 0
KSW1 131203Z 22008KT 00/M03 A3017 RMK A01 T00021028  RH  080%=      5-min Rain = 0
KSW1 131204Z 21008KT 00/M03 A3017 RMK A01 T00021029  RH  080%=      5-min Rain = 0
KSW1 131205Z 22009KT 00/M03 A3017 RMK A01 T00021029  RH  080%=      5-min Rain = 0
KSW1 131206Z 22009KT 00/M03 A3017 RMK A01 T00011029  RH  080%=      5-min Rain = 0
KSW1 131207Z 22009KT 00/M03 A3017 RMK A01 T00011029  RH  080%=      5-min Rain = 0
KSW1 131208Z 22008KT 00/M03 A3017 RMK A01 T00011029  RH  080%=      5-min Rain = 0
KSW1 131209Z 22009KT 00/M03 A3017 RMK A01 T00011029  RH  080%=      5-min Rain = 0
KSW1 131210Z 22008KT 00/M03 A3017 RMK A01 T00021028  RH  080%=      5-min Rain = 0
KSW1 131211Z 22009KT 00/M03 A3017 RMK A01 T00031028  RH  080%=      5-min Rain = 0
KSW1 131212Z 22008KT 00/M03 A3017 RMK A01 T00031028  RH  079%=      5-min Rain = 0
KSW1 131213Z 23008KT 00/M03 A3017 RMK A01 T00031029  RH  079%=      5-min Rain = 0
KSW1 131214Z 22008KT 00/M03 A3017 RMK A01 T00031029  RH  079%=      5-min Rain = 0
KSW1 131215Z 23008KT 00/M03 A3017 RMK A01 T00031029  RH  079%=      5-min Rain = 0
KSW1 131216Z 23009KT 00/M03 A3017 RMK A01 T00041029  RH  079%=      5-min Rain = 0
KSW1 131217Z 23008KT 00/M03 A3017 RMK A01 T00041029  RH  079%=      5-min Rain = 0
KSW1 131218Z 23008KT 00/M03 A3017 RMK A01 T00041029  RH  079%=      5-min Rain = 0
KSW1 131219Z 23008KT 00/M03 A3017 RMK A01 T00031029  RH  079%=      5-min Rain = 0
KSW1 131220Z 23008KT 00/M03 A3017 RMK A01 T00031029  RH  079%=      5-min Rain = 0
KSW1 131221Z 23007KT 00/M03 A3017 RMK A01 T00021029  RH  079%=      5-min Rain = 0
KSW1 131222Z 22008KT 00/M03 A3017 RMK A01 T00021030  RH  080%=      5-min Rain = 0
KSW1 131223Z 22007KT 00/M03 A3017 RMK A01 T00011030  RH  080%=      5-min Rain = 0
KSW1 131224Z 23007KT 00/M03 A3017 RMK A01 T00011030  RH  080%=      5-min Rain = 0
KSW1 131225Z 23008KT 00/03 A3017 RMK A01 T00000-30  RH  080%=      5-min Rain = 0
KSW1 131226Z 22007KT 00/M03 A3017 RMK A01 T00011029  RH  080%=      5-min Rain = 0
KSW1 131227Z 22007KT 00/03 A3017 RMK A01 T00000-30  RH  080%=      5-min Rain = 0
KSW1 131228Z 22007KT 00/03 A3017 RMK A01 T00000-29  RH  080%=      5-min Rain = 0
KSW1 131229Z 22006KT 00/03 A3017 RMK A01 T00000-30  RH  080%=      5-min Rain = 0
KSW1 131230Z 22008KT 00/03 A3017 RMK A01 T00000-30  RH  080%=      5-min Rain = 0
KSW1 131231Z 22007KT 00/M03 A3017 RMK A01 T00011029  RH  080%=      5-min Rain = 0
KSW1 131232Z 22008KT 00/M03 A3017 RMK A01 T00021029  RH  080%=      5-min Rain = 0
KSW1 131233Z 22007KT 00/M03 A3017 RMK A01 T00021029  RH  080%=      5-min Rain = 0
KSW1 131234Z 22007KT 00/M03 A3017 RMK A01 T00021030  RH  080%=      5-min Rain = 0
KSW1 131235Z 22007KT 00/M03 A3017 RMK A01 T00021029  RH  080%=      5-min Rain = 0
KSW1 131236Z 22007KT 00/M03 A3017 RMK A01 T00011029  RH  080%=      5-min Rain = 0
KSW1 131237Z 21007KT 00/M03 A3017 RMK A01 T00011029  RH  080%=      5-min Rain = 0
KSW1 131238Z 22007KT 00/M03 A3016 RMK A01 T00011030  RH  080%=      5-min Rain = 0
KSW1 131239Z 22007KT 00/M03 A3016 RMK A01 T00011030  RH  080%=      5-min Rain = 0
KSW1 131240Z 22007KT 00/M03 A3016 RMK A01 T00011029  RH  080%=      5-min Rain = 0
KSW1 131241Z 22007KT 00/M03 A3016 RMK A01 T00011029  RH  080%=      5-min Rain = 0
KSW1 131242Z 22007KT 00/M03 A3016 RMK A01 T00011030  RH  080%=      5-min Rain = 0
KSW1 131243Z 22007KT 00/M03 A3016 RMK A01 T00011029  RH  080%=      5-min Rain = 0
KSW1 131244Z 22007KT 00/M03 A3016 RMK A01 T00011030  RH  080%=      5-min Rain = 0
KSW1 131245Z 22007KT 00/M03 A3016 RMK A01 T00011029  RH  080%=      5-min Rain = 0
KSW1 131246Z 22007KT 00/M03 A3016 RMK A01 T00011030  RH  080%=      5-min Rain = 0
KSW1 131247Z 22007KT 00/M03 A3016 RMK A01 T00011030  RH  080%=      5-min Rain = 0
KSW1 131248Z 22008KT 00/03 A3016 RMK A01 T00000-31  RH  080%=      5-min Rain = 0
KSW1 131249Z 22008KT 00/M03 A3016 RMK A01 T00011030  RH  080%=      5-min Rain = 0
KSW1 131250Z 23007KT 00/M03 A3016 RMK A01 T00021030  RH  079%=      5-min Rain = 0
KSW1 131251Z 23007KT 00/M03 A3016 RMK A01 T00011030  RH  079%=      5-min Rain = 0
KSW1 131252Z 22008KT 00/M03 A3016 RMK A01 T00011030  RH  079%=      5-min Rain = 0
KSW1 131253Z 22008KT 00/M03 A3016 RMK A01 T00011030  RH  079%=      5-min Rain = 0
KSW1 131254Z 22008KT 00/M03 A3016 RMK A01 T00021030  RH  079%=      5-min Rain = 0
KSW1 131255Z 22008KT 00/M03 A3016 RMK A01 T00041030  RH  078%=      5-min Rain = 0
KSW1 131256Z 22008KT 00/M03 A3016 RMK A01 T00041031  RH  078%=      5-min Rain = 0
KSW1 131257Z 21008KT 00/M03 A3016 RMK A01 T00041030  RH  078%=      5-min Rain = 0
KSW1 131258Z 21008KT 00/M03 A3015 RMK A01 T00041030  RH  078%=      5-min Rain = 0
KSW1 131259Z 21008KT 00/M03 A3015 RMK A01 T00041030  RH  078%=      5-min Rain = 0
KSW1 131300Z 22008KT 00/M03 A3015 RMK A01 T00041030  RH  078%=      5-min Rain = 0
KSW1 131301Z 22008KT 00/M03 A3015 RMK A01 T00041031  RH  077%=      5-min Rain = 0
KSW1 131302Z 22008KT 00/M03 A3015 RMK A01 T00041031  RH  077%=      5-min Rain = 0
KSW1 131303Z 22008KT 01/M03 A3015 RMK A01 T00051031  RH  076%=      5-min Rain = 0
KSW1 131304Z 23009KT 01/M03 A3015 RMK A01 T00061032  RH  076%=      5-min Rain = 0
KSW1 131305Z 22009KT 01/M03 A3015 RMK A01 T00071032  RH  075%=      5-min Rain = 0
KSW1 131306Z 22009KT 01/M03 A3015 RMK A01 T00091031  RH  075%=      5-min Rain = 0
KSW1 131307Z 22008KT 01/M03 A3015 RMK A01 T00091031  RH  074%=      5-min Rain = 0
KSW1 131308Z 22009KT 01/M03 A3015 RMK A01 T00081032  RH  075%=      5-min Rain = 0
KSW1 131309Z 22008KT 01/M03 A3015 RMK A01 T00081032  RH  075%=      5-min Rain = 0
KSW1 131310Z 22009KT 01/M03 A3015 RMK A01 T00071032  RH  075%=      5-min Rain = 0
KSW1 131311Z 22009KT 01/M03 A3015 RMK A01 T00071033  RH  075%=      5-min Rain = 0
KSW1 131312Z 22009KT 01/M03 A3015 RMK A01 T00061033  RH  075%=      5-min Rain = 0
KSW1 131313Z 22008KT 01/M03 A3015 RMK A01 T00071033  RH  074%=      5-min Rain = 0
KSW1 131314Z 22008KT 01/M03 A3015 RMK A01 T00081034  RH  074%=      5-min Rain = 0
KSW1 131315Z 22009KT 01/M03 A3015 RMK A01 T00081034  RH  074%=      5-min Rain = 0
KSW1 131316Z 22008KT 01/M03 A3015 RMK A01 T00081034  RH  074%=      5-min Rain = 0
KSW1 131317Z 22008KT 01/M03 A3015 RMK A01 T00071034  RH  074%=      5-min Rain = 0
KSW1 131318Z 22009KT 01/M03 A3015 RMK A01 T00061034  RH  074%=      5-min Rain = 0
KSW1 131319Z 22009KT 01/M03 A3015 RMK A01 T00071034  RH  074%=      5-min Rain = 0
KSW1 131320Z 22008KT 01/M04 A3015 RMK A01 T00071035  RH  073%=      5-min Rain = 0
KSW1 131321Z 23008KT 01/M04 A3015 RMK A01 T00081035  RH  073%=      5-min Rain = 0
KSW1 131322Z 23009KT 01/M04 A3015 RMK A01 T00071035  RH  073%=      5-min Rain = 0
KSW1 131323Z 23008KT 01/M04 A3015 RMK A01 T00061036  RH  074%=      5-min Rain = 0
KSW1 131324Z 23008KT 01/M04 A3015 RMK A01 T00061036  RH  074%=      5-min Rain = 0
KSW1 131325Z 23008KT 01/M04 A3015 RMK A01 T00051036  RH  074%=      5-min Rain = 0
KSW1 131326Z 23009KT 01/M04 A3015 RMK A01 T00051035  RH  075%=      5-min Rain = 0
KSW1 131327Z 23008KT 01/M04 A3015 RMK A01 T00051035  RH  075%=      5-min Rain = 0
KSW1 131328Z 23008KT 01/M04 A3015 RMK A01 T00051035  RH  074%=      5-min Rain = 0
KSW1 131329Z 23009KT 01/M04 A3015 RMK A01 T00051035  RH  074%=      5-min Rain = 0
KSW1 131330Z 23009KT 01/M04 A3015 RMK A01 T00061036  RH  074%=      5-min Rain = 0
KSW1 131331Z 23008KT 01/M04 A3015 RMK A01 T00071035  RH  073%=      5-min Rain = 0
KSW1 131332Z 23009KT 01/M04 A3015 RMK A01 T00071035  RH  073%=      5-min Rain = 0
KSW1 131333Z 23009KT 01/M04 A3015 RMK A01 T00081036  RH  073%=      5-min Rain = 0
KSW1 131334Z 23008KT 01/M04 A3015 RMK A01 T00081036  RH  072%=      5-min Rain = 0
KSW1 131335Z 24008KT 01/M04 A3015 RMK A01 T00091036  RH  072%=      5-min Rain = 0
KSW1 131336Z 24008KT 01/M04 A3015 RMK A01 T00091036  RH  072%=      5-min Rain = 0
KSW1 131337Z 24009KT 01/M04 A3015 RMK A01 T00091036  RH  072%=      5-min Rain = 0
KSW1 131338Z 24008KT 01/M04 A3015 RMK A01 T00091036  RH  072%=      5-min Rain = 0
KSW1 131339Z 24007KT 01/M04 A3015 RMK A01 T00091036  RH  072%=      5-min Rain = 0
KSW1 131340Z 24008KT 01/M04 A3015 RMK A01 T00091036  RH  072%=      5-min Rain = 0
KSW1 131341Z 24007KT 01/M04 A3015 RMK A01 T00081036  RH  072%=      5-min Rain = 0
KSW1 131342Z 23008KT 01/M04 A3015 RMK A01 T00081036  RH  072%=      5-min Rain = 0
KSW1 131343Z 23008KT 01/M04 A3015 RMK A01 T00081037  RH  072%=      5-min Rain = 0
KSW1 131344Z 23008KT 01/M04 A3015 RMK A01 T00071037  RH  072%=      5-min Rain = 0
KSW1 131345Z 23007KT 01/M04 A3015 RMK A01 T00061037  RH  072%=      5-min Rain = 0
KSW1 131346Z 23008KT 01/M04 A3014 RMK A01 T00061037  RH  073%=      5-min Rain = 0
KSW1 131347Z 23008KT 01/M04 A3014 RMK A01 T00061037  RH  073%=      5-min Rain = 0
KSW1 131348Z 23008KT 01/M04 A3014 RMK A01 T00051037  RH  073%=      5-min Rain = 0
KSW1 131349Z 23007KT 01/M04 A3014 RMK A01 T00051037  RH  073%=      5-min Rain = 0
KSW1 131350Z 23008KT 01/M04 A3014 RMK A01 T00051037  RH  073%=      5-min Rain = 0
KSW1 131351Z 23007KT 01/M04 A3014 RMK A01 T00061037  RH  073%=      5-min Rain = 0
KSW1 131352Z 23007KT 01/M04 A3014 RMK A01 T00061037  RH  073%=      5-min Rain = 0
KSW1 131353Z 23007KT 01/M04 A3014 RMK A01 T00051037  RH  073%=      5-min Rain = 0
KSW1 131354Z 23007KT 01/M04 A3015 RMK A01 T00061038  RH  073%=      5-min Rain = 0
KSW1 131355Z 23008KT 01/M04 A3015 RMK A01 T00061038  RH  073%=      5-min Rain = 0
KSW1 131356Z 23007KT 01/M04 A3015 RMK A01 T00071038  RH  072%=      5-min Rain = 0
KSW1 131357Z 23007KT 01/M04 A3015 RMK A01 T00071037  RH  072%=      5-min Rain = 0
KSW1 131358Z 23007KT 01/M04 A3015 RMK A01 T00071037  RH  072%=      5-min Rain = 0
KSW1 131359Z 23008KT 01/M04 A3015 RMK A01 T00081037  RH  072%=      5-min Rain = 0
KSW1 131400Z 23007KT 01/M04 A3014 RMK A01 T00081038  RH  071%=      5-min Rain = 0
KSW1 131401Z 23007KT 01/M04 A3014 RMK A01 T00081038  RH  071%=      5-min Rain = 0
KSW1 131402Z 23009KT 01/M04 A3014 RMK A01 T00091037  RH  071%=      5-min Rain = 0
KSW1 131403Z 23008KT 01/M04 A3014 RMK A01 T00101037  RH  071%=      5-min Rain = 0
KSW1 131404Z 23007KT 01/M04 A3014 RMK A01 T00101037  RH  071%=      5-min Rain = 0
KSW1 131405Z 23008KT 01/M04 A3014 RMK A01 T00101037  RH  071%=      5-min Rain = 0
KSW1 131406Z 23007KT 01/M04 A3014 RMK A01 T00101037  RH  071%=      5-min Rain = 0
KSW1 131407Z 24008KT 01/M04 A3015 RMK A01 T00101037  RH  070%=      5-min Rain = 0
KSW1 131408Z 24007KT 01/M04 A3015 RMK A01 T00101037  RH  070%=      5-min Rain = 0
KSW1 131409Z 24007KT 01/M04 A3015 RMK A01 T00101037  RH  071%=      5-min Rain = 0
KSW1 131410Z 24007KT 01/M04 A3015 RMK A01 T00101037  RH  071%=      5-min Rain = 0
KSW1 131411Z 24008KT 01/M04 A3015 RMK A01 T00101037  RH  071%=      5-min Rain = 0
KSW1 131412Z 24008KT 01/M04 A3015 RMK A01 T00101037  RH  071%=      5-min Rain = 0
KSW1 131413Z 24008KT 01/M04 A3014 RMK A01 T00111037  RH  070%=      5-min Rain = 0
KSW1 131414Z 23008KT 01/M04 A3014 RMK A01 T00131037  RH  070%=      5-min Rain = 0
KSW1 131415Z 23007KT 01/M04 A3014 RMK A01 T00131037  RH  069%=      5-min Rain = 0
KSW1 131416Z 23007KT 01/M04 A3014 RMK A01 T00141037  RH  069%=      5-min Rain = 0
KSW1 131417Z 23007KT 01/M04 A3014 RMK A01 T00131036  RH  070%=      5-min Rain = 0
KSW1 131418Z 23007KT 01/M04 A3014 RMK A01 T00121037  RH  070%=      5-min Rain = 0
KSW1 131419Z 23007KT 01/M04 A3015 RMK A01 T00121036  RH  070%=      5-min Rain = 0
KSW1 131420Z 23008KT 01/M04 A3015 RMK A01 T00131036  RH  070%=      5-min Rain = 0
KSW1 131421Z 23008KT 01/M04 A3015 RMK A01 T00131037  RH  070%=      5-min Rain = 0
KSW1 131422Z 23008KT 01/M04 A3015 RMK A01 T00141036  RH  069%=      5-min Rain = 0
KSW1 131423Z 23007KT 02/M04 A3015 RMK A01 T00151036  RH  069%=      5-min Rain = 0
KSW1 131424Z 23007KT 02/M04 A3015 RMK A01 T00151035  RH  069%=      5-min Rain = 0
KSW1 131425Z 23007KT 02/M04 A3015 RMK A01 T00151035  RH  069%=      5-min Rain = 0
KSW1 131426Z 23008KT 02/M04 A3015 RMK A01 T00151036  RH  069%=      5-min Rain = 0
KSW1 131427Z 22007KT 02/M04 A3015 RMK A01 T00161036  RH  068%=      5-min Rain = 0
KSW1 131428Z 23007KT 02/M04 A3015 RMK A01 T00161035  RH  069%=      5-min Rain = 0
KSW1 131429Z 22007KT 02/M04 A3015 RMK A01 T00161035  RH  069%=      5-min Rain = 0
KSW1 131430Z 22007KT 02/M04 A3015 RMK A01 T00161035  RH  069%=      5-min Rain = 0
KSW1 131431Z 23007KT 02/M04 A3015 RMK A01 T00161035  RH  069%=      5-min Rain = 0
KSW1 131432Z 22007KT 02/M04 A3015 RMK A01 T00161035  RH  069%=      5-min Rain = 0
KSW1 131433Z 23008KT 02/M04 A3015 RMK A01 T00171035  RH  069%=      5-min Rain = 0
KSW1 131434Z 23007KT 02/M04 A3015 RMK A01 T00171035  RH  068%=      5-min Rain = 0
KSW1 131435Z 23007KT 02/M03 A3015 RMK A01 T00181034  RH  068%=      5-min Rain = 0
KSW1 131436Z 23006KT 02/M03 A3015 RMK A01 T00181034  RH  068%=      5-min Rain = 0
KSW1 131437Z 23007KT 02/M03 A3015 RMK A01 T00181034  RH  068%=      5-min Rain = 0
KSW1 131438Z 23007KT 02/M03 A3015 RMK A01 T00181033  RH  069%=      5-min Rain = 0
KSW1 131439Z 23008KT 02/M03 A3015 RMK A01 T00181034  RH  069%=      5-min Rain = 0
KSW1 131440Z 23008KT 02/M03 A3015 RMK A01 T00181034  RH  069%=      5-min Rain = 0
KSW1 131441Z 23008KT 02/M03 A3015 RMK A01 T00181034  RH  068%=      5-min Rain = 0
KSW1 131442Z 23007KT 02/M03 A3015 RMK A01 T00191033  RH  069%=      5-min Rain = 0
KSW1 131443Z 23006KT 02/M03 A3015 RMK A01 T00181032  RH  069%=      5-min Rain = 0
KSW1 131444Z 24007KT 02/M03 A3015 RMK A01 T00191032  RH  069%=      5-min Rain = 0
KSW1 131445Z 23007KT 02/M03 A3015 RMK A01 T00191031  RH  069%=      5-min Rain = 0
KSW1 131446Z 23007KT 02/M03 A3015 RMK A01 T00191031  RH  070%=      5-min Rain = 0
KSW1 131447Z 23007KT 02/M03 A3015 RMK A01 T00191030  RH  070%=      5-min Rain = 0
KSW1 131448Z 23007KT 02/M03 A3015 RMK A01 T00191030  RH  070%=      5-min Rain = 0
KSW1 131449Z 23007KT 02/M03 A3015 RMK A01 T00191030  RH  070%=      5-min Rain = 0
KSW1 131450Z 23008KT 02/M03 A3015 RMK A01 T00191031  RH  070%=      5-min Rain = 0
KSW1 131451Z 22008KT 02/M03 A3015 RMK A01 T00191031  RH  069%=      5-min Rain = 0
KSW1 131452Z 22008KT 02/M03 A3015 RMK A01 T00201031  RH  069%=      5-min Rain = 0
KSW1 131453Z 23009KT 02/M03 A3015 RMK A01 T00201030  RH  069%=      5-min Rain = 0
KSW1 131454Z 22009KT 02/M03 A3014 RMK A01 T00201031  RH  069%=      5-min Rain = 0
KSW1 131455Z 23009KT 02/M03 A3014 RMK A01 T00211030  RH  069%=      5-min Rain = 0
KSW1 131456Z 22009KT 02/M03 A3014 RMK A01 T00211031  RH  069%=      5-min Rain = 0
KSW1 131457Z 22010KT 02/M03 A3014 RMK A01 T00211030  RH  069%=      5-min Rain = 0
KSW1 131458Z 22009KT 02/M03 A3014 RMK A01 T00211032  RH  068%=      5-min Rain = 0
KSW1 131459Z 22011KT 02/M03 A3014 RMK A01 T00221031  RH  068%=      5-min Rain = 0
KSW1 131500Z 22009KT 02/M03 A3014 RMK A01 T00221032  RH  067%=      5-min Rain = 0
KSW1 131501Z 22009KT 02/M03 A3014 RMK A01 T00221030  RH  068%=      5-min Rain = 0
KSW1 131502Z 23008KT 02/M03 A3014 RMK A01 T00221030  RH  069%=      5-min Rain = 0
KSW1 131503Z 22009KT 02/M03 A3014 RMK A01 T00221031  RH  068%=      5-min Rain = 0
KSW1 131504Z 22008KT 02/M03 A3014 RMK A01 T00221031  RH  068%=      5-min Rain = 0
KSW1 131505Z 22009KT 02/M03 A3014 RMK A01 T00231030  RH  068%=      5-min Rain = 0
KSW1 131506Z 22008KT 02/M03 A3014 RMK A01 T00221030  RH  068%=      5-min Rain = 0
KSW1 131507Z 22008KT 02/M03 A3014 RMK A01 T00231029  RH  069%=      5-min Rain = 0
KSW1 131508Z 22007KT 02/M03 A3014 RMK A01 T00231029  RH  069%=      5-min Rain = 0
KSW1 131509Z 23008KT 02/M03 A3014 RMK A01 T00231029  RH  068%=      5-min Rain = 0
KSW1 131510Z 22007KT 02/M03 A3014 RMK A01 T00231029  RH  069%=      5-min Rain = 0
KSW1 131511Z 22008KT 02/M03 A3014 RMK A01 T00231028  RH  069%=      5-min Rain = 0
KSW1 131512Z 22009KT 02/M03 A3014 RMK A01 T00231030  RH  068%=      5-min Rain = 0
KSW1 131513Z 22008KT 02/M03 A3014 RMK A01 T00241029  RH  068%=      5-min Rain = 0
KSW1 131514Z 22008KT 02/M03 A3014 RMK A01 T00241028  RH  068%=      5-min Rain = 0
KSW1 131515Z 22008KT 02/M03 A3014 RMK A01 T00241027  RH  069%=      5-min Rain = 0
KSW1 131516Z 22009KT 03/M03 A3014 RMK A01 T00251029  RH  068%=      5-min Rain = 0
KSW1 131517Z 22009KT 03/M03 A3014 RMK A01 T00251030  RH  067%=      5-min Rain = 0
KSW1 131518Z 22008KT 03/M03 A3014 RMK A01 T00261028  RH  068%=      5-min Rain = 0
KSW1 131519Z 22009KT 03/M03 A3014 RMK A01 T00261028  RH  067%=      5-min Rain = 0
KSW1 131520Z 23009KT 03/M03 A3014 RMK A01 T00261030  RH  066%=      5-min Rain = 0
KSW1 131521Z 22009KT 03/M03 A3014 RMK A01 T00261029  RH  067%=      5-min Rain = 0
KSW1 131522Z 22009KT 03/M03 A3014 RMK A01 T00271029  RH  067%=      5-min Rain = 0
KSW1 131523Z 22008KT 03/M03 A3014 RMK A01 T00271027  RH  067%=      5-min Rain = 0
KSW1 131524Z 22010KT 03/M03 A3014 RMK A01 T00271027  RH  067%=      5-min Rain = 0
KSW1 131525Z 22008KT 03/M03 A3014 RMK A01 T00281030  RH  066%=      5-min Rain = 0
KSW1 131526Z 22009KT 03/M03 A3014 RMK A01 T00271029  RH  066%=      5-min Rain = 0
KSW1 131527Z 22010KT 03/M03 A3014 RMK A01 T00281030  RH  066%=      5-min Rain = 0
KSW1 131528Z 23008KT 03/M03 A3014 RMK A01 T00281029  RH  066%=      5-min Rain = 0
KSW1 131529Z 22010KT 03/M03 A3014 RMK A01 T00291029  RH  066%=      5-min Rain = 0
KSW1 131530Z 22010KT 03/M03 A3014 RMK A01 T00291032  RH  064%=      5-min Rain = 0
KSW1 131531Z 23010KT 03/M03 A3014 RMK A01 T00301031  RH  065%=      5-min Rain = 0
KSW1 131532Z 23009KT 03/M03 A3014 RMK A01 T00301030  RH  065%=      5-min Rain = 0
KSW1 131533Z 23009KT 03/M03 A3014 RMK A01 T00301030  RH  065%=      5-min Rain = 0
KSW1 131534Z 23009KT 03/M03 A3014 RMK A01 T00301029  RH  065%=      5-min Rain = 0
KSW1 131535Z 22008KT 03/M03 A3014 RMK A01 T00301029  RH  065%=      5-min Rain = 0
KSW1 131536Z 23009KT 03/M03 A3014 RMK A01 T00311029  RH  065%=      5-min Rain = 0
KSW1 131537Z 23010KT 03/M03 A3015 RMK A01 T00311029  RH  064%=      5-min Rain = 0
KSW1 131538Z 23010KT 03/M03 A3015 RMK A01 T00311029  RH  064%=      5-min Rain = 0
KSW1 131539Z 23010KT 03/M03 A3015 RMK A01 T00311030  RH  064%=      5-min Rain = 0
KSW1 131540Z 23009KT 03/M03 A3015 RMK A01 T00311029  RH  064%=      5-min Rain = 0
KSW1 131541Z 23009KT 03/M03 A3014 RMK A01 T00321029  RH  064%=      5-min Rain = 0
KSW1 131542Z 22010KT 03/M03 A3014 RMK A01 T00321029  RH  064%=      5-min Rain = 0
KSW1 131543Z 23009KT 03/M03 A3014 RMK A01 T00321030  RH  064%=      5-min Rain = 0
KSW1 131544Z 23009KT 03/M03 A3014 RMK A01 T00331028  RH  064%=      5-min Rain = 0
KSW1 131545Z 23008KT 03/M03 A3015 RMK A01 T00331027  RH  065%=      5-min Rain = 0
KSW1 131546Z 23009KT 03/M03 A3015 RMK A01 T00331029  RH  064%=      5-min Rain = 0
KSW1 131547Z 23009KT 03/M03 A3015 RMK A01 T00331028  RH  064%=      5-min Rain = 0
KSW1 131548Z 23008KT 03/M03 A3015 RMK A01 T00331029  RH  064%=      5-min Rain = 0
KSW1 131549Z 22010KT 03/M03 A3015 RMK A01 T00331030  RH  063%=      5-min Rain = 0
KSW1 131550Z 23009KT 03/M03 A3015 RMK A01 T00331030  RH  063%=      5-min Rain = 0
KSW1 131551Z 23010KT 03/M03 A3015 RMK A01 T00331028  RH  064%=      5-min Rain = 0
KSW1 131552Z 22012KT 03/M03 A3015 RMK A01 T00331029  RH  064%=      5-min Rain = 0
KSW1 131553Z 22011KT 03/M03 A3015 RMK A01 T00331031  RH  063%=      5-min Rain = 0
KSW1 131554Z 22009KT 03/M03 A3014 RMK A01 T00331030  RH  063%=      5-min Rain = 0
KSW1 131555Z 22009KT 03/M03 A3015 RMK A01 T00341029  RH  064%=      5-min Rain = 0
KSW1 131556Z 23009KT 03/M03 A3014 RMK A01 T00341028  RH  064%=      5-min Rain = 0
KSW1 131557Z 22010KT 04/M03 A3014 RMK A01 T00351026  RH  064%=      5-min Rain = 0
KSW1 131558Z 23009KT 04/M03 A3014 RMK A01 T00361028  RH  063%=      5-min Rain = 0
KSW1 131559Z 22009KT 04/M03 A3014 RMK A01 T00361027  RH  063%=      5-min Rain = 0
KSW1 131600Z 22010KT 04/M03 A3014 RMK A01 T00361029  RH  063%=      5-min Rain = 0
KSW1 131601Z 23010KT 04/M03 A3014 RMK A01 T00361028  RH  063%=      5-min Rain = 0
KSW1 131602Z 23009KT 04/M03 A3014 RMK A01 T00361028  RH  063%=      5-min Rain = 0
KSW1 131603Z 22009KT 04/M03 A3014 RMK A01 T00371026  RH  064%=      5-min Rain = 0
KSW1 131604Z 23010KT 04/M03 A3014 RMK A01 T00371027  RH  063%=      5-min Rain = 0
KSW1 131605Z 23009KT 04/M03 A3015 RMK A01 T00381027  RH  063%=      5-min Rain = 0
KSW1 131606Z 23009KT 04/M03 A3015 RMK A01 T00381025  RH  064%=      5-min Rain = 0
KSW1 131607Z 24009KT 04/M03 A3015 RMK A01 T00381025  RH  063%=      5-min Rain = 0
KSW1 131608Z 23009KT 04/M03 A3015 RMK A01 T00391025  RH  063%=      5-min Rain = 0
KSW1 131609Z 23008KT 04/M02 A3015 RMK A01 T00391024  RH  063%=      5-min Rain = 0
KSW1 131610Z 22008KT 04/M02 A3015 RMK A01 T00391024  RH  063%=      5-min Rain = 0
KSW1 131611Z 23009KT 04/M03 A3015 RMK A01 T00391025  RH  063%=      5-min Rain = 0
KSW1 131612Z 23008KT 04/M02 A3015 RMK A01 T00401021  RH  064%=      5-min Rain = 0
KSW1 131613Z 23012KT 04/M02 A3015 RMK A01 T00401021  RH  064%=      5-min Rain = 0
KSW1 131614Z 23009KT 04/M02 A3015 RMK A01 T00401024  RH  063%=      5-min Rain = 0
KSW1 131615Z 24009KT 04/M02 A3015 RMK A01 T00401023  RH  064%=      5-min Rain = 0
KSW1 131616Z 23009KT 04/M02 A3015 RMK A01 T00401022  RH  064%=      5-min Rain = 0
KSW1 131617Z 24009KT 04/M02 A3015 RMK A01 T00401022  RH  064%=      5-min Rain = 0
KSW1 131618Z 23008KT 04/M02 A3015 RMK A01 T00401022  RH  064%=      5-min Rain = 0
KSW1 131619Z 23008KT 04/M02 A3015 RMK A01 T00411019  RH  065%=      5-min Rain = 0
KSW1 131620Z 24011KT 04/M02 A3015 RMK A01 T00411022  RH  063%=      5-min Rain = 0
KSW1 131621Z 24009KT 04/M02 A3015 RMK A01 T00411022  RH  063%=      5-min Rain = 0
KSW1 131622Z 23010KT 04/M02 A3015 RMK A01 T00411020  RH  065%=      5-min Rain = 0
KSW1 131623Z 23010KT 04/M02 A3015 RMK A01 T00411022  RH  063%=      5-min Rain = 0
KSW1 131624Z 24011KT 04/M02 A3015 RMK A01 T00411023  RH  063%=      5-min Rain = 0
KSW1 131625Z 24009KT 04/M02 A3015 RMK A01 T00411024  RH  062%=      5-min Rain = 0
KSW1 131626Z 24009KT 04/M02 A3015 RMK A01 T00411021  RH  064%=      5-min Rain = 0
KSW1 131627Z 24010KT 04/M02 A3015 RMK A01 T00421020  RH  064%=      5-min Rain = 0
KSW1 131628Z 24010KT 04/M02 A3015 RMK A01 T00421020  RH  064%=      5-min Rain = 0
KSW1 131629Z 24009KT 04/M02 A3016 RMK A01 T00421018  RH  065%=      5-min Rain = 0
KSW1 131630Z 24009KT 04/M02 A3016 RMK A01 T00431016  RH  065%=      5-min Rain = 0
KSW1 131631Z 25011KT 04/M02 A3016 RMK A01 T00441016  RH  065%=      5-min Rain = 0
KSW1 131632Z 25012KT 04/M02 A3015 RMK A01 T00441019  RH  063%=      5-min Rain = 0
KSW1 131633Z 25011KT 04/M02 A3015 RMK A01 T00441020  RH  063%=      5-min Rain = 0
KSW1 131634Z 24011KT 04/M02 A3015 RMK A01 T00441022  RH  062%=      5-min Rain = 0
KSW1 131635Z 24009KT 04/M02 A3015 RMK A01 T00441020  RH  063%=      5-min Rain = 0
KSW1 131636Z 24010KT 04/M02 A3015 RMK A01 T00441019  RH  064%=      5-min Rain = 0
KSW1 131637Z 23010KT 05/M02 A3015 RMK A01 T00451020  RH  063%=      5-min Rain = 0
KSW1 131638Z 23011KT 05/M02 A3015 RMK A01 T00451021  RH  062%=      5-min Rain = 0
KSW1 131639Z 24010KT 05/M02 A3015 RMK A01 T00461018  RH  063%=      5-min Rain = 0
KSW1 131640Z 23008KT 05/M02 A3015 RMK A01 T00471016  RH  064%=      5-min Rain = 0
KSW1 131641Z 23009KT 05/M01 A3015 RMK A01 T00481014  RH  064%=      5-min Rain = 0
KSW1 131642Z 24008KT 05/M01 A3015 RMK A01 T00491014  RH  064%=      5-min Rain = 0
KSW1 131643Z 23009KT 05/M01 A3015 RMK A01 T00491013  RH  064%=      5-min Rain = 0
KSW1 131644Z 24008KT 05/M01 A3015 RMK A01 T00491014  RH  064%=      5-min Rain = 0
KSW1 131645Z 24008KT 05/M01 A3015 RMK A01 T00501012  RH  064%=      5-min Rain = 0
KSW1 131646Z 24010KT 05/M01 A3015 RMK A01 T00511014  RH  063%=      5-min Rain = 0
KSW1 131647Z 24011KT 05/M02 A3015 RMK A01 T00511015  RH  062%=      5-min Rain = 0
KSW1 131648Z 24010KT 05/M02 A3015 RMK A01 T00511017  RH  061%=      5-min Rain = 0
KSW1 131649Z 23010KT 05/M01 A3015 RMK A01 T00521014  RH  062%=      5-min Rain = 0
KSW1 131650Z 24010KT 05/M02 A3015 RMK A01 T00521015  RH  062%=      5-min Rain = 0
KSW1 131651Z 24009KT 05/M02 A3015 RMK A01 T00521016  RH  061%=      5-min Rain = 0
KSW1 131652Z 25011KT 05/M01 A3015 RMK A01 T00531014  RH  062%=      5-min Rain = 0
KSW1 131653Z 24011G16KT 05/M02 A3015 RMK A01 T00531020  RH  059%=      5-min Rain = 0
KSW1 131654Z 24011KT 05/M02 A3015 RMK A01 T00541019  RH  059%=      5-min Rain = 0
KSW1 131655Z 24012KT 05/M02 A3015 RMK A01 T00541020  RH  059%=      5-min Rain = 0
KSW1 131656Z 24010KT 05/M02 A3015 RMK A01 T00541019  RH  060%=      5-min Rain = 0
KSW1 131657Z 24009KT 05/M01 A3015 RMK A01 T00541013  RH  062%=      5-min Rain = 0
KSW1 131658Z 25011KT 06/M01 A3015 RMK A01 T00551011  RH  062%=      5-min Rain = 0
KSW1 131659Z 24011KT 06/M02 A3015 RMK A01 T00561016  RH  060%=      5-min Rain = 0
KSW1 131700Z 24011KT 06/M02 A3015 RMK A01 T00571015  RH  060%=      5-min Rain = 0
KSW1 131701Z 24013KT 06/M02 A3015 RMK A01 T00571019  RH  058%=      5-min Rain = 0
KSW1 131702Z 24012KT 06/M02 A3015 RMK A01 T00571019  RH  058%=      5-min Rain = 0
KSW1 131703Z 24012KT 06/M02 A3015 RMK A01 T00571019  RH  058%=      5-min Rain = 0
KSW1 131704Z 24012KT 06/M02 A3015 RMK A01 T00571019  RH  058%=      5-min Rain = 0
KSW1 131705Z 24011KT 06/M02 A3015 RMK A01 T00571016  RH  059%=      5-min Rain = 0
KSW1 131706Z 24012KT 06/M02 A3014 RMK A01 T00581015  RH  059%=      5-min Rain = 0
KSW1 131707Z 24011KT 06/M02 A3014 RMK A01 T00591016  RH  059%=      5-min Rain = 0
KSW1 131708Z 24010KT 06/M02 A3014 RMK A01 T00591015  RH  059%=      5-min Rain = 0
KSW1 131709Z 24009KT 06/M01 A3014 RMK A01 T00591013  RH  060%=      5-min Rain = 0
KSW1 131710Z 25012KT 06/M01 A3014 RMK A01 T00601014  RH  059%=      5-min Rain = 0
KSW1 131711Z 25012KT 06/M02 A3014 RMK A01 T00601017  RH  058%=      5-min Rain = 0
KSW1 131712Z 25009KT 06/M01 A3014 RMK A01 T00601011  RH  060%=      5-min Rain = 0
KSW1 131713Z 25011KT 06/M01 A3014 RMK A01 T00601012  RH  060%=      5-min Rain = 0
KSW1 131714Z 25011KT 06/M01 A3014 RMK A01 T00601013  RH  059%=      5-min Rain = 0
KSW1 131715Z 25010KT 06/M01 A3014 RMK A01 T00601011  RH  060%=      5-min Rain = 0
KSW1 131716Z 24012KT 06/M01 A3014 RMK A01 T00611012  RH  059%=      5-min Rain = 0
KSW1 131717Z 25012KT 06/M01 A3013 RMK A01 T00611014  RH  059%=      5-min Rain = 0
KSW1 131718Z 24009KT 06/M02 A3013 RMK A01 T00611016  RH  058%=      5-min Rain = 0
KSW1 131719Z 24010KT 06/M01 A3013 RMK A01 T00601013  RH  059%=      5-min Rain = 0
KSW1 131720Z 24011KT 06/M01 A3013 RMK A01 T00611012  RH  059%=      5-min Rain = 0
KSW1 131721Z 24011KT 06/M02 A3013 RMK A01 T00621015  RH  058%=      5-min Rain = 0
KSW1 131722Z 24010KT 06/M01 A3013 RMK A01 T00621014  RH  058%=      5-min Rain = 0
KSW1 131723Z 25009KT 06/M01 A3013 RMK A01 T00621013  RH  059%=      5-min Rain = 0
KSW1 131724Z 24008KT 06/M01 A3013 RMK A01 T00631009  RH  060%=      5-min Rain = 0
KSW1 131725Z 24008KT 07/M00 A3013 RMK A01 T00651003  RH  062%=      5-min Rain = 0
KSW1 131726Z 24008KT 07/M00 A3013 RMK A01 T00671002  RH  062%=      5-min Rain = 0
KSW1 131727Z 24009KT 07/M00 A3012 RMK A01 T00681003  RH  061%=      5-min Rain = 0
KSW1 131728Z 23010KT 07/M01 A3012 RMK A01 T00681007  RH  058%=      5-min Rain = 0
KSW1 131729Z 24011KT 07/M01 A3012 RMK A01 T00691008  RH  058%=      5-min Rain = 0
KSW1 131730Z 24008KT 07/M01 A3012 RMK A01 T00691010  RH  057%=      5-min Rain = 0
KSW1 131731Z 24008KT 07/M01 A3012 RMK A01 T00691008  RH  058%=      5-min Rain = 0
KSW1 131732Z 25010KT 07/M01 A3012 RMK A01 T00691007  RH  058%=      5-min Rain = 0
KSW1 131733Z 24010KT 07/M01 A3012 RMK A01 T00701010  RH  057%=      5-min Rain = 0
KSW1 131734Z 24010KT 07/M01 A3012 RMK A01 T00701007  RH  058%=      5-min Rain = 0
KSW1 131735Z 25009KT 07/M01 A3012 RMK A01 T00711005  RH  058%=      5-min Rain = 0
KSW1 131736Z 24008KT 07/M01 A3012 RMK A01 T00721005  RH  058%=      5-min Rain = 0
KSW1 131737Z 24007KT 07/M00 A3012 RMK A01 T00731003  RH  058%=      5-min Rain = 0
KSW1 131738Z 24007KT 07/M00 A3012 RMK A01 T00741003  RH  058%=      5-min Rain = 0
KSW1 131739Z 22009KT 08/M00 A3012 RMK A01 T00751001  RH  059%=      5-min Rain = 0
KSW1 131740Z 23011KT 08/M01 A3011 RMK A01 T00761005  RH  057%=      5-min Rain = 0
KSW1 131741Z 23011KT 08/M01 A3011 RMK A01 T00751009  RH  055%=      5-min Rain = 0
KSW1 131742Z 23012KT 08/M01 A3011 RMK A01 T00751010  RH  055%=      5-min Rain = 0
KSW1 131743Z 23011KT 08/M01 A3011 RMK A01 T00751010  RH  055%=      5-min Rain = 0
KSW1 131744Z 24009KT 08/M01 A3011 RMK A01 T00751006  RH  056%=      5-min Rain = 0
KSW1 131745Z 24011KT 08/M00 A3011 RMK A01 T00771004  RH  056%=      5-min Rain = 0
KSW1 131746Z 24010KT 08/M01 A3011 RMK A01 T00771008  RH  055%=      5-min Rain = 0
KSW1 131747Z 25010KT 08/M00 A3011 RMK A01 T00771004  RH  056%=      5-min Rain = 0
KSW1 131748Z 26011KT 08/M01 A3011 RMK A01 T00771005  RH  056%=      5-min Rain = 0
KSW1 131749Z 25011KT 08/M01 A3011 RMK A01 T00771005  RH  056%=      5-min Rain = 0
KSW1 131750Z 25011KT 08/M01 A3011 RMK A01 T00781006  RH  056%=      5-min Rain = 0
KSW1 131751Z 25012KT 08/M01 A3011 RMK A01 T00781007  RH  055%=      5-min Rain = 0
KSW1 131752Z 25010KT 08/M01 A3011 RMK A01 T00781006  RH  055%=      5-min Rain = 0
KSW1 131753Z 24010KT 08/M00 A3011 RMK A01 T00791004  RH  056%=      5-min Rain = 0
KSW1 131754Z 25012KT 08/M00 A3011 RMK A01 T00801002  RH  056%=      5-min Rain = 0
KSW1 131755Z 24011KT 08/M00 A3011 RMK A01 T00811004  RH  055%=      5-min Rain = 0
KSW1 131756Z 24011KT 08/M00 A3011 RMK A01 T00811003  RH  055%=      5-min Rain = 0
KSW1 131757Z 24011KT 08/M00 A301 RMK A01 T00821003  RH  055%=      5-min Rain = 0
KSW1 131758Z 25010KT 08/M00 A301 RMK A01 T00821001  RH  056%=      5-min Rain = 0
KSW1 131759Z 25011KT 08/00 A301 RMK A01 T00830001  RH  056%=      5-min Rain = 0
KSW1 131800Z 24011KT 08/M00 A301 RMK A01 T00841002  RH  055%=      5-min Rain = 0
KSW1 131801Z 24011KT 08/M00 A301 RMK A01 T00841001  RH  055%=      5-min Rain = 0
KSW1 131802Z 24009KT 08/M01 A301 RMK A01 T00841006  RH  053%=      5-min Rain = 0
KSW1 131803Z 26009KT 09/01 A301 RMK A01 T00850005  RH  057%=      5-min Rain = 0
KSW1 131804Z 24011KT 09/01 A301 RMK A01 T00870005  RH  057%=      5-min Rain = 0
KSW1 131805Z 24012KT 09/00 A301 RMK A01 T00870000  RH  054%=      5-min Rain = 0
KSW1 131806Z 25012KT 09/00 A301 RMK A01 T00870002  RH  055%=      5-min Rain = 0
KSW1 131807Z 25010KT 09/00 A301 RMK A01 T00860001  RH  055%=      5-min Rain = 0
KSW1 131808Z 24010KT 09/01 A301 RMK A01 T00860005  RH  057%=      5-min Rain = 0
KSW1 131809Z 24013KT 09/00 A301 RMK A01 T00870004  RH  056%=      5-min Rain = 0
KSW1 131810Z 25014KT 09/00 A301 RMK A01 T00870001  RH  055%=      5-min Rain = 0
KSW1 131811Z 24013KT 09/M00 A301 RMK A01 T00871003  RH  053%=      5-min Rain = 0
KSW1 131812Z 24010KT 09/M00 A301 RMK A01 T00871001  RH  054%=      5-min Rain = 0
KSW1 131813Z 24008KT 09/01 A301 RMK A01 T00880009  RH  058%=      5-min Rain = 0
KSW1 131814Z 24011KT 09/01 A3009 RMK A01 T00910005  RH  055%=      5-min Rain = 0
KSW1 131815Z 23011KT 09/00 A3009 RMK A01 T00900000  RH  053%=      5-min Rain = 0
KSW1 131816Z 25012KT 09/00 A3009 RMK A01 T00900000  RH  054%=      5-min Rain = 0
KSW1 131817Z 25011KT 09/M00 A3009 RMK A01 T00891001  RH  053%=      5-min Rain = 0
KSW1 131818Z 25010KT 09/00 A3009 RMK A01 T00900003  RH  054%=      5-min Rain = 0
KSW1 131819Z 25011KT 09/00 A3009 RMK A01 T00910002  RH  054%=      5-min Rain = 0
KSW1 131820Z 24009KT 09/00 A3009 RMK A01 T00920003  RH  054%=      5-min Rain = 0
KSW1 131821Z 24013KT 09/00 A3009 RMK A01 T00930003  RH  053%=      5-min Rain = 0
KSW1 131822Z 24013KT 09/00 A3008 RMK A01 T00930002  RH  053%=      5-min Rain = 0
KSW1 131823Z 25013KT 09/00 A3008 RMK A01 T009300-0  RH  052%=      5-min Rain = 0
KSW1 131824Z 25012KT 09/M00 A3008 RMK A01 T00931002  RH  051%=      5-min Rain = 0
KSW1 131825Z 25011KT 09/M00 A3008 RMK A01 T00931001  RH  052%=      5-min Rain = 0
KSW1 131826Z 26012KT 09/00 A3008 RMK A01 T00940001  RH  052%=      5-min Rain = 0
KSW1 131827Z 25012KT 09/00 A3008 RMK A01 T00940001  RH  052%=      5-min Rain = 0
KSW1 131828Z 24011KT 09/M00 A3008 RMK A01 T00941003  RH  051%=      5-min Rain = 0
KSW1 131829Z 25012KT 09/00 A3008 RMK A01 T00940000  RH  052%=      5-min Rain = 0
KSW1 131830Z 25012KT 10/00 A3008 RMK A01 T00950003  RH  053%=      5-min Rain = 0
KSW1 131831Z 25010KT 10/00 A3008 RMK A01 T00950001  RH  052%=      5-min Rain = 0
KSW1 131832Z 25014KT 10/M00 A3008 RMK A01 T00951002  RH  051%=      5-min Rain = 0
KSW1 131833Z 25012KT 10/00 A3008 RMK A01 T00950003  RH  052%=      5-min Rain = 0
KSW1 131834Z 25012KT 10/00 A3008 RMK A01 T00950001  RH  052%=      5-min Rain = 0
KSW1 131835Z 25013KT 10/00 A3008 RMK A01 T00960002  RH  052%=      5-min Rain = 0
KSW1 131836Z 25011KT 10/00 A3008 RMK A01 T00970001  RH  051%=      5-min Rain = 0
KSW1 131837Z 25012KT 10/00 A3008 RMK A01 T00990004  RH  052%=      5-min Rain = 0
KSW1 131838Z 24011KT 10/01 A3008 RMK A01 T00990005  RH  052%=      5-min Rain = 0
KSW1 131839Z 24012KT 10/00 A3008 RMK A01 T01000003  RH  051%=      5-min Rain = 0
KSW1 131840Z 25008KT 10/01 A3008 RMK A01 T01000006  RH  052%=      5-min Rain = 0
KSW1 131841Z 25010KT 10/01 A3008 RMK A01 T01020008  RH  052%=      5-min Rain = 0
KSW1 131842Z 25013KT 10/01 A3008 RMK A01 T01040007  RH  051%=      5-min Rain = 0
KSW1 131843Z 24013KT 10/00 A3008 RMK A01 T010400-0  RH  048%=      5-min Rain = 0
KSW1 131844Z 25011KT 10/00 A3007 RMK A01 T010300-0  RH  049%=      5-min Rain = 0
KSW1 131845Z 24014KT 10/M00 A3007 RMK A01 T01031004  RH  048%=      5-min Rain = 0
KSW1 131846Z 25014KT 10/M01 A3007 RMK A01 T01021007  RH  047%=      5-min Rain = 0
KSW1 131847Z 25012KT 10/M00 A3007 RMK A01 T01021003  RH  048%=      5-min Rain = 0
KSW1 131848Z 24015KT 10/M00 A3007 RMK A01 T01011004  RH  048%=      5-min Rain = 0
KSW1 131849Z 24014KT 10/M01 A3007 RMK A01 T01011007  RH  047%=      5-min Rain = 0
KSW1 131850Z 24013KT 10/M01 A3007 RMK A01 T01001007  RH  047%=      5-min Rain = 0
KSW1 131851Z 25013KT 10/M00 A3007 RMK A01 T01001003  RH  049%=      5-min Rain = 0
KSW1 131852Z 24012KT 10/M00 A3007 RMK A01 T01021001  RH  049%=      5-min Rain = 0
KSW1 131853Z 23012KT 10/M00 A3007 RMK A01 T01031001  RH  048%=      5-min Rain = 0
KSW1 131854Z 24013KT 10/M00 A3006 RMK A01 T01041001  RH  048%=      5-min Rain = 0
KSW1 131855Z 25015KT 11/M00 A3006 RMK A01 T01051001  RH  048%=      5-min Rain = 0
KSW1 131856Z 24015KT 11/M01 A3006 RMK A01 T01051005  RH  047%=      5-min Rain = 0
KSW1 131857Z 24013KT 11/M00 A3006 RMK A01 T01051004  RH  047%=      5-min Rain = 0
KSW1 131858Z 25013KT 11/M00 A3006 RMK A01 T01051002  RH  047%=      5-min Rain = 0
KSW1 131859Z 25013KT 11/M00 A3006 RMK A01 T01051001  RH  048%=      5-min Rain = 0
KSW1 131900Z 25013KT 11/00 A3006 RMK A01 T01060001  RH  048%=      5-min Rain = 0
KSW1 131901Z 25013KT 11/00 A3006 RMK A01 T01070001  RH  048%=      5-min Rain = 0
KSW1 131902Z 25012KT 11/00 A3006 RMK A01 T01070004  RH  049%=      5-min Rain = 0
KSW1 131903Z 24013KT 11/00 A3005 RMK A01 T01070004  RH  049%=      5-min Rain = 0
KSW1 131904Z 25014KT 11/00 A3005 RMK A01 T01070003  RH  049%=      5-min Rain = 0
KSW1 131905Z 25011KT 11/M00 A3005 RMK A01 T01071003  RH  047%=      5-min Rain = 0
KSW1 131906Z 25011KT 11/00 A3005 RMK A01 T01080002  RH  048%=      5-min Rain = 0
KSW1 131907Z 24011KT 11/00 A3005 RMK A01 T01080003  RH  048%=      5-min Rain = 0
KSW1 131908Z 24013KT 11/00 A3005 RMK A01 T01090004  RH  048%=      5-min Rain = 0
KSW1 131909Z 25013KT 11/00 A3005 RMK A01 T01100002  RH  047%=      5-min Rain = 0
KSW1 131910Z 24012KT 11/00 A3005 RMK A01 T01090002  RH  048%=      5-min Rain = 0
KSW1 131911Z 25012KT 11/00 A3005 RMK A01 T01090002  RH  048%=      5-min Rain = 0
KSW1 131912Z 24013KT 11/01 A3004 RMK A01 T01090007  RH  049%=      5-min Rain = 0
KSW1 131913Z 25014KT 11/00 A3004 RMK A01 T01100004  RH  048%=      5-min Rain = 0
KSW1 131914Z 24015KT 11/00 A3004 RMK A01 T01100003  RH  048%=      5-min Rain = 0
KSW1 131915Z 24012KT 11/00 A3004 RMK A01 T01100004  RH  048%=      5-min Rain = 0
KSW1 131916Z 25011KT 11/01 A3004 RMK A01 T01100008  RH  049%=      5-min Rain = 0
KSW1 131917Z 25014KT 11/01 A3004 RMK A01 T01110006  RH  048%=      5-min Rain = 0
KSW1 131918Z 24010KT 11/01 A3004 RMK A01 T01120011  RH  050%=      5-min Rain = 0
KSW1 131919Z 24010KT 11/02 A3004 RMK A01 T01140016  RH  051%=      5-min Rain = 0
KSW1 131920Z 23009KT 12/01 A3004 RMK A01 T01160008  RH  047%=      5-min Rain = 0
KSW1 131921Z 24010KT 12/01 A3004 RMK A01 T01160013  RH  049%=      5-min Rain = 0
KSW1 131922Z 23014KT 12/01 A3004 RMK A01 T01160011  RH  048%=      5-min Rain = 0
KSW1 131923Z 23012KT 12/00 A3003 RMK A01 T01150002  RH  046%=      5-min Rain = 0
KSW1 131924Z 23014G21KT 12/01 A3003 RMK A01 T01150006  RH  047%=      5-min Rain = 0
KSW1 131925Z 23015KT 12/M01 A3003 RMK A01 T01151007  RH  043%=      5-min Rain = 0
KSW1 131926Z 24012G17KT 12/M01 A3003 RMK A01 T01161007  RH  043%=      5-min Rain = 0
KSW1 131927Z 24011KT 12/00 A3003 RMK A01 T01150001  RH  045%=      5-min Rain = 0
KSW1 131928Z 24014KT 12/00 A3003 RMK A01 T01170004  RH  046%=      5-min Rain = 0
KSW1 131929Z 23012KT 12/M00 A3003 RMK A01 T01181002  RH  043%=      5-min Rain = 0
KSW1 131930Z 22013KT 12/00 A3002 RMK A01 T01180002  RH  045%=      5-min Rain = 0
KSW1 131931Z 22014KT 12/M00 A3002 RMK A01 T01181002  RH  044%=      5-min Rain = 0
KSW1 131932Z 22014KT 12/M00 A3002 RMK A01 T01171004  RH  043%=      5-min Rain = 0
KSW1 131933Z 22014G19KT 12/M00 A3002 RMK A01 T01161002  RH  044%=      5-min Rain = 0
KSW1 131934Z 23016KT 12/M01 A3002 RMK A01 T01171007  RH  042%=      5-min Rain = 0
KSW1 131935Z 23013KT 12/M00 A3002 RMK A01 T01171001  RH  044%=      5-min Rain = 0
KSW1 131936Z 23015KT 12/00 A3002 RMK A01 T01170002  RH  045%=      5-min Rain = 0
KSW1 131937Z 23016KT 12/M01 A3001 RMK A01 T01181005  RH  043%=      5-min Rain = 0
KSW1 131938Z 23015KT 12/M01 A3001 RMK A01 T01181005  RH  043%=      5-min Rain = 0
KSW1 131939Z 23016KT 12/M01 A3001 RMK A01 T01171005  RH  043%=      5-min Rain = 0
KSW1 131940Z 24013G18KT 12/M00 A3001 RMK A01 T01171001  RH  044%=      5-min Rain = 0
KSW1 131941Z 23014KT 12/M00 A3001 RMK A01 T01171003  RH  044%=      5-min Rain = 0
KSW1 131942Z 22014KT 12/00 A3002 RMK A01 T011800-0  RH  044%=      5-min Rain = 0
KSW1 131943Z 23014KT 12/M01 A3002 RMK A01 T01191005  RH  042%=      5-min Rain = 0
KSW1 131944Z 22011KT 12/00 A3002 RMK A01 T01200000  RH  044%=      5-min Rain = 0
KSW1 131945Z 23012KT 12/M00 A3002 RMK A01 T01221002  RH  042%=      5-min Rain = 0
KSW1 131946Z 22015KT 12/M01 A3002 RMK A01 T01221006  RH  041%=      5-min Rain = 0
KSW1 131947Z 22012G17KT 12/M01 A3002 RMK A01 T01191007  RH  042%=      5-min Rain = 0
KSW1 131948Z 24016KT 12/M01 A3002 RMK A01 T01171011  RH  041%=      5-min Rain = 0
KSW1 131949Z 24017KT 11/M01 A3002 RMK A01 T01141013  RH  041%=      5-min Rain = 0
KSW1 131950Z 23016KT 11/M02 A3002 RMK A01 T01131016  RH  041%=      5-min Rain = 0
KSW1 131951Z 24012KT 11/M01 A3002 RMK A01 T01121013  RH  042%=      5-min Rain = 0
KSW1 131952Z 23015KT 11/M01 A3001 RMK A01 T01121007  RH  044%=      5-min Rain = 0
KSW1 131953Z 23015KT 11/M01 A3001 RMK A01 T01111010  RH  043%=      5-min Rain = 0
KSW1 131954Z 23012KT 11/M01 A3001 RMK A01 T01111009  RH  044%=      5-min Rain = 0
KSW1 131955Z 22014KT 11/M01 A3001 RMK A01 T01111008  RH  044%=      5-min Rain = 0
KSW1 131956Z 22013KT 11/M01 A3001 RMK A01 T01131010  RH  043%=      5-min Rain = 0
KSW1 131957Z 23016KT 11/M02 A3001 RMK A01 T01141016  RH  040%=      5-min Rain = 0
KSW1 131958Z 23016KT 12/M01 A3001 RMK A01 T01151012  RH  041%=      5-min Rain = 0
KSW1 131959Z 23015KT 12/M01 A3001 RMK A01 T01161013  RH  041%=      5-min Rain = 0
KSW1 132000Z 23014KT 12/M01 A30 RMK A01 T01171011  RH  041%=      5-min Rain = 0
KSW1 132001Z 23016KT 12/M01 A30 RMK A01 T01181010  RH  041%=      5-min Rain = 0
KSW1 132002Z 23014KT 12/M01 A30 RMK A01 T01191010  RH  041%=      5-min Rain = 0
KSW1 132003Z 24014KT 12/M01 A30 RMK A01 T01191008  RH  042%=      5-min Rain = 0
KSW1 132004Z 24016KT 12/M01 A30 RMK A01 T01191008  RH  041%=      5-min Rain = 0
KSW1 132005Z 23015KT 12/M01 A30 RMK A01 T01191014  RH  040%=      5-min Rain = 0
KSW1 132006Z 24013KT 12/M00 A30 RMK A01 T01191004  RH  042%=      5-min Rain = 0
KSW1 132007Z 23016KT 12/M01 A30 RMK A01 T01201008  RH  041%=      5-min Rain = 0
KSW1 132008Z 24015KT 12/M01 A3001 RMK A01 T01211010  RH  040%=      5-min Rain = 0
KSW1 132009Z 24012KT 12/M01 A3001 RMK A01 T01211006  RH  042%=      5-min Rain = 0
KSW1 132010Z 23013KT 12/M01 A3001 RMK A01 T01231006  RH  041%=      5-min Rain = 0
KSW1 132011Z 23012G17KT 12/M01 A3001 RMK A01 T01231006  RH  041%=      5-min Rain = 0
KSW1 132012Z 23011KT 13/00 A3001 RMK A01 T01250004  RH  043%=      5-min Rain = 0
KSW1 132013Z 24013G19KT 13/00 A3001 RMK A01 T01280003  RH  042%=      5-min Rain = 0
KSW1 132014Z 23015KT 13/M01 A3001 RMK A01 T01281008  RH  039%=      5-min Rain = 0
KSW1 132015Z 23013KT 13/M01 A3001 RMK A01 T01261010  RH  039%=      5-min Rain = 0
KSW1 132016Z 24013KT 13/M01 A3001 RMK A01 T01251007  RH  040%=      5-min Rain = 0
KSW1 132017Z 24012G17KT 13/M00 A3001 RMK A01 T01251004  RH  041%=      5-min Rain = 0
KSW1 132018Z 24013KT 13/M01 A30 RMK A01 T01251006  RH  040%=      5-min Rain = 0
KSW1 132019Z 23013KT 13/M00 A3001 RMK A01 T01261002  RH  041%=      5-min Rain = 0
KSW1 132020Z 23014KT 13/M01 A30 RMK A01 T01261007  RH  040%=      5-min Rain = 0
KSW1 132021Z 23014KT 13/M01 A30 RMK A01 T01261006  RH  040%=      5-min Rain = 0
KSW1 132022Z 23012KT 13/00 A30 RMK A01 T012600-0  RH  042%=      5-min Rain = 0
KSW1 132023Z 23013KT 13/M01 A30 RMK A01 T01271005  RH  040%=      5-min Rain = 0
KSW1 132024Z 24013KT 13/00 A30 RMK A01 T01280001  RH  042%=      5-min Rain = 0
KSW1 132025Z 24013KT 13/M00 A30 RMK A01 T01291001  RH  041%=      5-min Rain = 0
KSW1 132026Z 23013KT 13/00 A30 RMK A01 T012900-0  RH  041%=      5-min Rain = 0
KSW1 132027Z 23015KT 13/M00 A30 RMK A01 T01291004  RH  040%=      5-min Rain = 0
KSW1 132028Z 23011KT 13/M00 A30 RMK A01 T01291004  RH  040%=      5-min Rain = 0
KSW1 132029Z 23014KT 13/M00 A30 RMK A01 T01291002  RH  041%=      5-min Rain = 0
KSW1 132030Z 23016KT 13/M00 A30 RMK A01 T01291004  RH  040%=      5-min Rain = 0
KSW1 132031Z 23016KT 13/M01 A30 RMK A01 T01291009  RH  038%=      5-min Rain = 0
KSW1 132032Z 23014KT 13/M01 A30 RMK A01 T01291007  RH  039%=      5-min Rain = 0
KSW1 132033Z 23014G21KT 13/M01 A30 RMK A01 T01291007  RH  039%=      5-min Rain = 0
KSW1 132034Z 24017KT 13/M01 A2999 RMK A01 T01311012  RH  037%=      5-min Rain = 0
KSW1 132035Z 23017KT 13/M01 A30 RMK A01 T01311014  RH  037%=      5-min Rain = 0
KSW1 132036Z 23015KT 13/M01 A30 RMK A01 T01311013  RH  037%=      5-min Rain = 0
KSW1 132037Z 23017KT 13/M01 A2999 RMK A01 T01311013  RH  037%=      5-min Rain = 0
KSW1 132038Z 23016KT 13/M02 A30 RMK A01 T01321020  RH  035%=      5-min Rain = 0
KSW1 132039Z 23014KT 13/M02 A2999 RMK A01 T01321017  RH  036%=      5-min Rain = 0
KSW1 132040Z 24015KT 13/M02 A2999 RMK A01 T01321016  RH  036%=      5-min Rain = 0
KSW1 132041Z 23013KT 13/M01 A2999 RMK A01 T01321011  RH  037%=      5-min Rain = 0
KSW1 132042Z 24015G20KT 13/M01 A2999 RMK A01 T01321008  RH  038%=      5-min Rain = 0
KSW1 132043Z 23018KT 13/M02 A2999 RMK A01 T01321018  RH  035%=      5-min Rain = 0
KSW1 132044Z 23018KT 13/M02 A2999 RMK A01 T01311018  RH  036%=      5-min Rain = 0
KSW1 132045Z 23017KT 13/M02 A2999 RMK A01 T01301016  RH  036%=      5-min Rain = 0
KSW1 132046Z 22015KT 13/M02 A2999 RMK A01 T01301019  RH  036%=      5-min Rain = 0
KSW1 132047Z 22013G18KT 13/M01 A2999 RMK A01 T01311012  RH  037%=      5-min Rain = 0
KSW1 132048Z 24015KT 13/M01 A2999 RMK A01 T01321008  RH  038%=      5-min Rain = 0
KSW1 132049Z 24015KT 13/M01 A2999 RMK A01 T01331006  RH  038%=      5-min Rain = 0
KSW1 132050Z 23016KT 13/M01 A2999 RMK A01 T01331013  RH  036%=      5-min Rain = 0
KSW1 132051Z 23017KT 13/M01 A2999 RMK A01 T01321014  RH  036%=      5-min Rain = 0
KSW1 132052Z 23016KT 13/M02 A2999 RMK A01 T01321015  RH  036%=      5-min Rain = 0
KSW1 132053Z 23015KT 13/M01 A2999 RMK A01 T01321013  RH  037%=      5-min Rain = 0
KSW1 132054Z 24012G18KT 13/M01 A2999 RMK A01 T01321007  RH  038%=      5-min Rain = 0
KSW1 132055Z 24017G22KT 13/M01 A2999 RMK A01 T01341012  RH  037%=      5-min Rain = 0
KSW1 132056Z 24018KT 13/M02 A2999 RMK A01 T01321018  RH  035%=      5-min Rain = 0
KSW1 132057Z 24018KT 13/M02 A2999 RMK A01 T01321017  RH  036%=      5-min Rain = 0
KSW1 132058Z 23012G17KT 13/M02 A2999 RMK A01 T01311016  RH  036%=      5-min Rain = 0
KSW1 132059Z 24013KT 13/M01 A2999 RMK A01 T01321005  RH  039%=      5-min Rain = 0
KSW1 132100Z 24014G19KT 13/M01 A2999 RMK A01 T01331009  RH  037%=      5-min Rain = 0
KSW1 132101Z 24016KT 13/M01 A2999 RMK A01 T01331009  RH  037%=      5-min Rain = 0
KSW1 132102Z 24014G19KT 13/M01 A2999 RMK A01 T01331014  RH  036%=      5-min Rain = 0
KSW1 132103Z 24015KT 13/M01 A2999 RMK A01 T01331011  RH  037%=      5-min Rain = 0
KSW1 132104Z 25018KT 13/M01 A2999 RMK A01 T01331013  RH  036%=      5-min Rain = 0
KSW1 132105Z 24017KT 13/M02 A2999 RMK A01 T01331018  RH  035%=      5-min Rain = 0
KSW1 132106Z 24014KT 13/M01 A2999 RMK A01 T01331010  RH  037%=      5-min Rain = 0
KSW1 132107Z 24015KT 13/M01 A2999 RMK A01 T01341010  RH  037%=      5-min Rain = 0
KSW1 132108Z 24015KT 13/M01 A2999 RMK A01 T01341014  RH  036%=      5-min Rain = 0
KSW1 132109Z 25013KT 13/M01 A2999 RMK A01 T01341008  RH  038%=      5-min Rain = 0
KSW1 132110Z 25015KT 13/M01 A2999 RMK A01 T01341010  RH  037%=      5-min Rain = 0
KSW1 132111Z 25015KT 13/M01 A2999 RMK A01 T01341012  RH  036%=      5-min Rain = 0
KSW1 132112Z 25017KT 13/M01 A2999 RMK A01 T01341013  RH  036%=      5-min Rain = 0
KSW1 132113Z 24013KT 13/M01 A2999 RMK A01 T01331011  RH  037%=      5-min Rain = 0
KSW1 132114Z 24016KT 13/M01 A2999 RMK A01 T01331009  RH  038%=      5-min Rain = 0
KSW1 132115Z 24015KT 13/M01 A2999 RMK A01 T01341010  RH  037%=      5-min Rain = 0
KSW1 132116Z 25016KT 13/M01 A2999 RMK A01 T01341012  RH  036%=      5-min Rain = 0
KSW1 132117Z 25017KT 13/M01 A2999 RMK A01 T01341013  RH  036%=      5-min Rain = 0
KSW1 132118Z 26014KT 13/M01 A2999 RMK A01 T01331010  RH  037%=      5-min Rain = 0
KSW1 132119Z 24016KT 13/M01 A2999 RMK A01 T01331010  RH  037%=      5-min Rain = 0
KSW1 132120Z 25014KT 13/M01 A2999 RMK A01 T01331011  RH  037%=      5-min Rain = 0
KSW1 132121Z 25015KT 13/M01 A2999 RMK A01 T01331011  RH  037%=      5-min Rain = 0
KSW1 132122Z 25015KT 13/M01 A2999 RMK A01 T01341012  RH  037%=      5-min Rain = 0
KSW1 132123Z 25012KT 13/M01 A2999 RMK A01 T01341012  RH  036%=      5-min Rain = 0
KSW1 132124Z 25013KT 13/M01 A2999 RMK A01 T01341011  RH  037%=      5-min Rain = 0
KSW1 132125Z 25011KT 13/M01 A2999 RMK A01 T01341006  RH  038%=      5-min Rain = 0
KSW1 132126Z 25012KT 14/M01 A2999 RMK A01 T01351006  RH  038%=      5-min Rain = 0
KSW1 132127Z 24012KT 14/M00 A2999 RMK A01 T01351004  RH  038%=      5-min Rain = 0
KSW1 132128Z 23013KT 14/M00 A2999 RMK A01 T01371001  RH  039%=      5-min Rain = 0
KSW1 132129Z 23015KT 14/M01 A2999 RMK A01 T01371008  RH  037%=      5-min Rain = 0
KSW1 132130Z 23015KT 14/M01 A2998 RMK A01 T01361013  RH  036%=      5-min Rain = 0
KSW1 132131Z 23016KT 14/M01 A2998 RMK A01 T01361008  RH  037%=      5-min Rain = 0
KSW1 132132Z 23014KT 14/M02 A2998 RMK A01 T01351015  RH  035%=      5-min Rain = 0
KSW1 132133Z 23015KT 14/M01 A2998 RMK A01 T01351011  RH  037%=      5-min Rain = 0
KSW1 132134Z 23015KT 14/M01 A2998 RMK A01 T01351014  RH  036%=      5-min Rain = 0
KSW1 132135Z 24014KT 13/M01 A2998 RMK A01 T01341013  RH  036%=      5-min Rain = 0
KSW1 132136Z 24014KT 14/M01 A2998 RMK A01 T01351012  RH  036%=      5-min Rain = 0
KSW1 132137Z 23011KT 14/M01 A2998 RMK A01 T01351009  RH  037%=      5-min Rain = 0
KSW1 132138Z 23011KT 14/M01 A2998 RMK A01 T01361007  RH  037%=      5-min Rain = 0
KSW1 132139Z 23012KT 14/M01 A2998 RMK A01 T01371006  RH  037%=      5-min Rain = 0
KSW1 132140Z 22014KT 14/M01 A2998 RMK A01 T01371011  RH  036%=      5-min Rain = 0
KSW1 132141Z 22013KT 14/M01 A2998 RMK A01 T01371013  RH  035%=      5-min Rain = 0
KSW1 132142Z 21013KT 14/M01 A2998 RMK A01 T01371013  RH  035%=      5-min Rain = 0
KSW1 132143Z 22016KT 14/M01 A2998 RMK A01 T01371014  RH  035%=      5-min Rain = 0
KSW1 132144Z 23016KT 14/M02 A2998 RMK A01 T01371017  RH  034%=      5-min Rain = 0
KSW1 132145Z 23016KT 14/M02 A2998 RMK A01 T01371015  RH  035%=      5-min Rain = 0
KSW1 132146Z 22018KT 14/M02 A2997 RMK A01 T01371019  RH  034%=      5-min Rain = 0
KSW1 132147Z 22014KT 14/M02 A2997 RMK A01 T01361015  RH  035%=      5-min Rain = 0
KSW1 132148Z 23012KT 14/M02 A2997 RMK A01 T01361016  RH  035%=      5-min Rain = 0
KSW1 132149Z 23014KT 14/M01 A2997 RMK A01 T01361013  RH  036%=      5-min Rain = 0
KSW1 132150Z 23013KT 14/M01 A2997 RMK A01 T01371011  RH  036%=      5-min Rain = 0
KSW1 132151Z 22016KT 14/M01 A2997 RMK A01 T01381009  RH  036%=      5-min Rain = 0
KSW1 132152Z 23015KT 14/M02 A2997 RMK A01 T01381016  RH  035%=      5-min Rain = 0
KSW1 132153Z 23011KT 14/M01 A2997 RMK A01 T01381013  RH  035%=      5-min Rain = 0
KSW1 132154Z 23016KT 14/M01 A2997 RMK A01 T01371013  RH  035%=      5-min Rain = 0
KSW1 132155Z 22017KT 14/M02 A2997 RMK A01 T01381018  RH  034%=      5-min Rain = 0
KSW1 132156Z 22016KT 14/M02 A2997 RMK A01 T01371017  RH  034%=      5-min Rain = 0
KSW1 132157Z 22014KT 14/M02 A2997 RMK A01 T01371016  RH  035%=      5-min Rain = 0
KSW1 132158Z 23014KT 14/M02 A2997 RMK A01 T01371015  RH  035%=      5-min Rain = 0
KSW1 132159Z 23014KT 14/M01 A2997 RMK A01 T01371013  RH  035%=      5-min Rain = 0
KSW1 132200Z 23015KT 14/M02 A2997 RMK A01 T01381015  RH  035%=      5-min Rain = 0
KSW1 132201Z 24014KT 14/M01 A2997 RMK A01 T01381014  RH  035%=      5-min Rain = 0
KSW1 132202Z 23011KT 14/M01 A2997 RMK A01 T01381012  RH  036%=      5-min Rain = 0
KSW1 132203Z 23010KT 14/M01 A2997 RMK A01 T01391008  RH  036%=      5-min Rain = 0
KSW1 132204Z 23010KT 14/M01 A2997 RMK A01 T01391005  RH  037%=      5-min Rain = 0
KSW1 132205Z 22010KT 14/M01 A2997 RMK A01 T01401008  RH  036%=      5-min Rain = 0
KSW1 132206Z 22012KT 14/M01 A2997 RMK A01 T01401013  RH  035%=      5-min Rain = 0
KSW1 132207Z 22012KT 14/M01 A2997 RMK A01 T01401010  RH  036%=      5-min Rain = 0
KSW1 132208Z 22012KT 14/M01 A2997 RMK A01 T01401011  RH  035%=      5-min Rain = 0
KSW1 132209Z 23013KT 14/M01 A2997 RMK A01 T01411013  RH  035%=      5-min Rain = 0
KSW1 132210Z 23016KT 14/M01 A2997 RMK A01 T01411014  RH  034%=      5-min Rain = 0
KSW1 132211Z 23013KT 14/M01 A2997 RMK A01 T01401011  RH  035%=      5-min Rain = 0
KSW1 132212Z 23015KT 14/M01 A2997 RMK A01 T01401014  RH  035%=      5-min Rain = 0
KSW1 132213Z 23015KT 14/M01 A2996 RMK A01 T01401014  RH  035%=      5-min Rain = 0
KSW1 132214Z 22014KT 14/M01 A2996 RMK A01 T01401012  RH  035%=      5-min Rain = 0
KSW1 132215Z 23012KT 14/M02 A2996 RMK A01 T01401015  RH  034%=      5-min Rain = 0
KSW1 132216Z 23013G19KT 14/M01 A2996 RMK A01 T01401011  RH  035%=      5-min Rain = 0
KSW1 132217Z 23017KT 14/M01 A2996 RMK A01 T01401014  RH  034%=      5-min Rain = 0
KSW1 132218Z 23013KT 14/M02 A2996 RMK A01 T01401018  RH  033%=      5-min Rain = 0
KSW1 132219Z 23013KT 14/M01 A2996 RMK A01 T01401012  RH  035%=      5-min Rain = 0
KSW1 132220Z 23013KT 14/M01 A2996 RMK A01 T01401009  RH  036%=      5-min Rain = 0
KSW1 132221Z 23015KT 14/M01 A2996 RMK A01 T01401013  RH  035%=      5-min Rain = 0
KSW1 132222Z 22015KT 14/M01 A2996 RMK A01 T01401014  RH  035%=      5-min Rain = 0
KSW1 132223Z 23013KT 14/M02 A2996 RMK A01 T01401018  RH  034%=      5-min Rain = 0
KSW1 132224Z 23014KT 14/M01 A2996 RMK A01 T01401009  RH  036%=      5-min Rain = 0
KSW1 132225Z 23013KT 14/M01 A2996 RMK A01 T01411012  RH  035%=      5-min Rain = 0
KSW1 132226Z 24014KT 14/M01 A2996 RMK A01 T01411012  RH  035%=      5-min Rain = 0
KSW1 132227Z 24015KT 14/M01 A2996 RMK A01 T01411013  RH  034%=      5-min Rain = 0
KSW1 132228Z 24012KT 14/M01 A2996 RMK A01 T01411014  RH  034%=      5-min Rain = 0
KSW1 132229Z 24013G19KT 14/M01 A2996 RMK A01 T01411010  RH  035%=      5-min Rain = 0
KSW1 132230Z 24016KT 14/M02 A2996 RMK A01 T01411019  RH  033%=      5-min Rain = 0
KSW1 132231Z 23016KT 14/M02 A2996 RMK A01 T01411017  RH  033%=      5-min Rain = 0
KSW1 132232Z 24017KT 14/M02 A2996 RMK A01 T01411019  RH  033%=      5-min Rain = 0
KSW1 132233Z 23016KT 14/M02 A2996 RMK A01 T01421022  RH  032%=      5-min Rain = 0
KSW1 132234Z 23015KT 14/M02 A2996 RMK A01 T01411018  RH  033%=      5-min Rain = 0
KSW1 132235Z 23013KT 14/M01 A2996 RMK A01 T01411012  RH  035%=      5-min Rain = 0
KSW1 132236Z 23013KT 14/M01 A2996 RMK A01 T01411014  RH  034%=      5-min Rain = 0
KSW1 132237Z 23013KT 14/M02 A2996 RMK A01 T01411016  RH  034%=      5-min Rain = 0
KSW1 132238Z 23015KT 14/M02 A2995 RMK A01 T01411016  RH  034%=      5-min Rain = 0
KSW1 132239Z 23013KT 14/M01 A2995 RMK A01 T01411013  RH  035%=      5-min Rain = 0
KSW1 132240Z 23015KT 14/M01 A2995 RMK A01 T01411014  RH  034%=      5-min Rain = 0
KSW1 132241Z 23015KT 14/M02 A2995 RMK A01 T01411017  RH  033%=      5-min Rain = 0
KSW1 132242Z 23014KT 14/M02 A2995 RMK A01 T01411019  RH  033%=      5-min Rain = 0
KSW1 132243Z 23012KT 14/M01 A2995 RMK A01 T01411013  RH  034%=      5-min Rain = 0
KSW1 132244Z 22012KT 14/M01 A2995 RMK A01 T01411013  RH  035%=      5-min Rain = 0
KSW1 132245Z 23011KT 14/M01 A2995 RMK A01 T01411009  RH  036%=      5-min Rain = 0
KSW1 132246Z 23011KT 14/M01 A2995 RMK A01 T01411009  RH  036%=      5-min Rain = 0
KSW1 132247Z 23011KT 14/M01 A2995 RMK A01 T01411010  RH  035%=      5-min Rain = 0
KSW1 132248Z 23010KT 14/M01 A2995 RMK A01 T01411009  RH  035%=      5-min Rain = 0
KSW1 132249Z 23010KT 14/M01 A2995 RMK A01 T01411009  RH  036%=      5-min Rain = 0
KSW1 132250Z 22014KT 14/M01 A2995 RMK A01 T01411012  RH  035%=      5-min Rain = 0
KSW1 132251Z 23013KT 14/M02 A2995 RMK A01 T01421016  RH  034%=      5-min Rain = 0
KSW1 132252Z 23013KT 14/M01 A2995 RMK A01 T01421014  RH  034%=      5-min Rain = 0
KSW1 132253Z 23012KT 14/M01 A2995 RMK A01 T01421014  RH  034%=      5-min Rain = 0
KSW1 132254Z 23012KT 14/M01 A2995 RMK A01 T01421013  RH  034%=      5-min Rain = 0
KSW1 132255Z 23011KT 14/M01 A2995 RMK A01 T01421011  RH  035%=      5-min Rain = 0
KSW1 132256Z 23012KT 14/M02 A2995 RMK A01 T01421015  RH  034%=      5-min Rain = 0
KSW1 132257Z 23013KT 14/M02 A2995 RMK A01 T01421016  RH  034%=      5-min Rain = 0
KSW1 132258Z 23011KT 14/M01 A2995 RMK A01 T01421013  RH  034%=      5-min Rain = 0
KSW1 132259Z 23012KT 14/M01 A2995 RMK A01 T01411013  RH  035%=      5-min Rain = 0
KSW1 132300Z 23011KT 14/M01 A2995 RMK A01 T01411012  RH  035%=      5-min Rain = 0
KSW1 132301Z 23010KT 14/M01 A2995 RMK A01 T01401007  RH  036%=      5-min Rain = 0
KSW1 132302Z 23009KT 14/M01 A2995 RMK A01 T01401007  RH  036%=      5-min Rain = 0
KSW1 132303Z 23009KT 14/M01 A2995 RMK A01 T01401007  RH  036%=      5-min Rain = 0
KSW1 132304Z 23010KT 14/M01 A2995 RMK A01 T01391006  RH  037%=      5-min Rain = 0
KSW1 132305Z 23009KT 14/M01 A2996 RMK A01 T01391007  RH  037%=      5-min Rain = 0
KSW1 132306Z 23008KT 14/M01 A2996 RMK A01 T01391006  RH  037%=      5-min Rain = 0
KSW1 132307Z 23010KT 14/M01 A2996 RMK A01 T01391007  RH  036%=      5-min Rain = 0
KSW1 132308Z 24008KT 14/M01 A2996 RMK A01 T01391006  RH  037%=      5-min Rain = 0
KSW1 132309Z 23008KT 14/M01 A2996 RMK A01 T01391006  RH  037%=      5-min Rain = 0
KSW1 132310Z 24008KT 14/M01 A2996 RMK A01 T01391006  RH  037%=      5-min Rain = 0
KSW1 132311Z 24010KT 14/M01 A2996 RMK A01 T01391008  RH  036%=      5-min Rain = 0
KSW1 132312Z 24010KT 14/M01 A2996 RMK A01 T01391012  RH  035%=      5-min Rain = 0
KSW1 132313Z 24008KT 14/M01 A2996 RMK A01 T01391009  RH  036%=      5-min Rain = 0
KSW1 132314Z 24009KT 14/M01 A2996 RMK A01 T01391006  RH  037%=      5-min Rain = 0
KSW1 132315Z 24008KT 14/M01 A2996 RMK A01 T01381006  RH  037%=      5-min Rain = 0
KSW1 132316Z 24011KT 14/M01 A2996 RMK A01 T01381007  RH  037%=      5-min Rain = 0
KSW1 132317Z 23009KT 14/M01 A2996 RMK A01 T01381009  RH  036%=      5-min Rain = 0
KSW1 132318Z 23010KT 14/M01 A2996 RMK A01 T01381011  RH  036%=      5-min Rain = 0
KSW1 132319Z 23010KT 14/M01 A2996 RMK A01 T01381009  RH  036%=      5-min Rain = 0
KSW1 132320Z 23009KT 14/M01 A2996 RMK A01 T01381007  RH  037%=      5-min Rain = 0
KSW1 132321Z 23008KT 14/M00 A2996 RMK A01 T01371004  RH  038%=      5-min Rain = 0
KSW1 132322Z 24008KT 14/M01 A2996 RMK A01 T01361005  RH  038%=      5-min Rain = 0
KSW1 132323Z 23008KT 14/M01 A2996 RMK A01 T01361005  RH  038%=      5-min Rain = 0
KSW1 132324Z 23009KT 14/M01 A2996 RMK A01 T01351005  RH  038%=      5-min Rain = 0
KSW1 132325Z 23008KT 14/M00 A2996 RMK A01 T01351004  RH  038%=      5-min Rain = 0
KSW1 132326Z 23008KT 13/M00 A2996 RMK A01 T01341002  RH  039%=      5-min Rain = 0
KSW1 132327Z 23008KT 13/M00 A2996 RMK A01 T01331002  RH  040%=      5-min Rain = 0
KSW1 132328Z 23009KT 13/M00 A2996 RMK A01 T01321003  RH  039%=      5-min Rain = 0
KSW1 132329Z 23011KT 13/M01 A2996 RMK A01 T01321006  RH  039%=      5-min Rain = 0
KSW1 132330Z 23010KT 13/M01 A2995 RMK A01 T01331008  RH  038%=      5-min Rain = 0
KSW1 132331Z 23010KT 13/M01 A2995 RMK A01 T01331006  RH  038%=      5-min Rain = 0
KSW1 132332Z 23011KT 13/M01 A2995 RMK A01 T01331006  RH  038%=      5-min Rain = 0
KSW1 132333Z 23011KT 13/M01 A2995 RMK A01 T01321007  RH  038%=      5-min Rain = 0
KSW1 132334Z 22010KT 13/M01 A2995 RMK A01 T01321006  RH  038%=      5-min Rain = 0
KSW1 132335Z 22011KT 13/M01 A2995 RMK A01 T01311007  RH  038%=      5-min Rain = 0
KSW1 132336Z 23011KT 13/M01 A2995 RMK A01 T01311009  RH  038%=      5-min Rain = 0
KSW1 132337Z 23010KT 13/M01 A2995 RMK A01 T01311006  RH  039%=      5-min Rain = 0
KSW1 132338Z 23011KT 13/M01 A2995 RMK A01 T01301006  RH  039%=      5-min Rain = 0
KSW1 132339Z 22011KT 13/M01 A2995 RMK A01 T01291007  RH  039%=      5-min Rain = 0
KSW1 132340Z 22011KT 13/M01 A2995 RMK A01 T01291008  RH  039%=      5-min Rain = 0
KSW1 132341Z 23012KT 13/M01 A2995 RMK A01 T01281008  RH  039%=      5-min Rain = 0
KSW1 132342Z 23010KT 13/M01 A2995 RMK A01 T01281008  RH  039%=      5-min Rain = 0
KSW1 132343Z 22011KT 13/M01 A2995 RMK A01 T01271007  RH  039%=      5-min Rain = 0
KSW1 132344Z 23010KT 13/M01 A2995 RMK A01 T01271009  RH  039%=      5-min Rain = 0
KSW1 132345Z 22010KT 13/M01 A2995 RMK A01 T01261009  RH  039%=      5-min Rain = 0
KSW1 132346Z 23009KT 13/M01 A2995 RMK A01 T01261008  RH  039%=      5-min Rain = 0
KSW1 132347Z 22010KT 13/M01 A2995 RMK A01 T01251009  RH  039%=      5-min Rain = 0
KSW1 132348Z 22009KT 13/M01 A2995 RMK A01 T01251010  RH  039%=      5-min Rain = 0
KSW1 132349Z 22008KT 13/M01 A2995 RMK A01 T01251011  RH  039%=      5-min Rain = 0
KSW1 132350Z 22009KT 13/M01 A2995 RMK A01 T01251011  RH  039%=      5-min Rain = 0
KSW1 132351Z 22009KT 12/M01 A2995 RMK A01 T01241011  RH  039%=      5-min Rain = 0
KSW1 132352Z 22008KT 12/M01 A2995 RMK A01 T01221009  RH  040%=      5-min Rain = 0
KSW1 132353Z 22008KT 12/M01 A2995 RMK A01 T01211009  RH  041%=      5-min Rain = 0
KSW1 132354Z 23008KT 12/M01 A2995 RMK A01 T01191009  RH  041%=      5-min Rain = 0
KSW1 132355Z 23007KT 12/M01 A2995 RMK A01 T01171008  RH  042%=      5-min Rain = 0
KSW1 132356Z 23007KT 12/M01 A2995 RMK A01 T01151008  RH  043%=      5-min Rain = 0
KSW1 132357Z 23007KT 11/M01 A2995 RMK A01 T01141008  RH  043%=      5-min Rain = 0
KSW1 132358Z 23008KT 11/M01 A2995 RMK A01 T01131008  RH  043%=      5-min Rain = 0
KSW1 132359Z 22008KT 11/M01 A2994 RMK A01 T01121008  RH  043%=      5-min Rain = 0
KSW1 140000Z 21008KT 11/M01 A2994 RMK A01 T01111008  RH  044%=      5-min Rain = 0
KSW1 140001Z 21008KT 11/M01 A2994 RMK A01 T01101007  RH  044%=      5-min Rain = 0
KSW1 140002Z 21008KT 11/M01 A2994 RMK A01 T01091007  RH  045%=      5-min Rain = 0
KSW1 140003Z 21008KT 11/M01 A2993 RMK A01 T01081007  RH  045%=      5-min Rain = 0
KSW1 140004Z 21008KT 11/M01 A2993 RMK A01 T01071005  RH  046%=      5-min Rain = 0
KSW1 140005Z 21008KT 11/M01 A2993 RMK A01 T01061006  RH  046%=      5-min Rain = 0
KSW1 140006Z 21008KT 11/M01 A2993 RMK A01 T01061006  RH  046%=      5-min Rain = 0
KSW1 140007Z 21007KT 11/M01 A2994 RMK A01 T01051006  RH  046%=      5-min Rain = 0
KSW1 140008Z 21008KT 11/M01 A2994 RMK A01 T01051007  RH  046%=      5-min Rain = 0
KSW1 140009Z 21008KT 10/M01 A2994 RMK A01 T01041007  RH  046%=      5-min Rain = 0
KSW1 140010Z 21008KT 10/M01 A2994 RMK A01 T01041007  RH  046%=      5-min Rain = 0
KSW1 140011Z 21008KT 10/M01 A2994 RMK A01 T01041009  RH  046%=      5-min Rain = 0
KSW1 140012Z 21009KT 10/M01 A2994 RMK A01 T01041009  RH  045%=      5-min Rain = 0
KSW1 140013Z 22009KT 11/M01 A2994 RMK A01 T01051010  RH  045%=      5-min Rain = 0
KSW1 140014Z 22009KT 11/M01 A2994 RMK A01 T01051011  RH  044%=      5-min Rain = 0
KSW1 140015Z 22008KT 11/M01 A2994 RMK A01 T01071012  RH  044%=      5-min Rain = 0
KSW1 140016Z 21008KT 11/M01 A2994 RMK A01 T01081012  RH  043%=      5-min Rain = 0
KSW1 140017Z 22008KT 11/M01 A2993 RMK A01 T01081012  RH  043%=      5-min Rain = 0
KSW1 140018Z 21009KT 11/M01 A2993 RMK A01 T01081011  RH  044%=      5-min Rain = 0
KSW1 140019Z 21008KT 11/M01 A2993 RMK A01 T01071011  RH  044%=      5-min Rain = 0
KSW1 140020Z 21008KT 11/M01 A2993 RMK A01 T01061011  RH  044%=      5-min Rain = 0
KSW1 140021Z 21009KT 11/M01 A2993 RMK A01 T01061011  RH  044%=      5-min Rain = 0
KSW1 140022Z 21008KT 11/M01 A2993 RMK A01 T01051013  RH  044%=      5-min Rain = 0
KSW1 140023Z 22008KT 11/M01 A2993 RMK A01 T01051014  RH  044%=      5-min Rain = 0
KSW1 140024Z 21008KT 11/M02 A2993 RMK A01 T01051015  RH  043%=      5-min Rain = 0
KSW1 140025Z 22008KT 11/M02 A2993 RMK A01 T01061015  RH  043%=      5-min Rain = 0
KSW1 140026Z 21008KT 11/M01 A2993 RMK A01 T01071014  RH  043%=      5-min Rain = 0
KSW1 140027Z 22008KT 11/M02 A2993 RMK A01 T01061015  RH  043%=      5-min Rain = 0
KSW1 140028Z 22009KT 11/M02 A2993 RMK A01 T01061015  RH  043%=      5-min Rain = 0
KSW1 140029Z 22009KT 11/M02 A2993 RMK A01 T01061017  RH  042%=      5-min Rain = 0
KSW1 140030Z 22009KT 11/M02 A2993 RMK A01 T01061016  RH  042%=      5-min Rain = 0
KSW1 140031Z 22008KT 11/M02 A2993 RMK A01 T01061015  RH  043%=      5-min Rain = 0
KSW1 140032Z 21007KT 11/M02 A2993 RMK A01 T01051015  RH  043%=      5-min Rain = 0
KSW1 140033Z 21008KT 10/M02 A2993 RMK A01 T01041015  RH  043%=      5-min Rain = 0
KSW1 140034Z 22007KT 10/M02 A2993 RMK A01 T01041015  RH  044%=      5-min Rain = 0
KSW1 140035Z 21008KT 10/M02 A2993 RMK A01 T01031016  RH  043%=      5-min Rain = 0
KSW1 140036Z 21008KT 10/M02 A2993 RMK A01 T01031016  RH  044%=      5-min Rain = 0
KSW1 140037Z 21008KT 10/M02 A2993 RMK A01 T01031016  RH  043%=      5-min Rain = 0
KSW1 140038Z 22008KT 10/M02 A2993 RMK A01 T01031017  RH  043%=      5-min Rain = 0
KSW1 140039Z 22009KT 10/M02 A2993 RMK A01 T01041016  RH  043%=      5-min Rain = 0
KSW1 140040Z 22008KT 10/M02 A2993 RMK A01 T01041017  RH  043%=      5-min Rain = 0
KSW1 140041Z 22009KT 10/M02 A2993 RMK A01 T01041018  RH  043%=      5-min Rain = 0
KSW1 140042Z 22009KT 11/M02 A2993 RMK A01 T01051017  RH  043%=      5-min Rain = 0
KSW1 140043Z 22009KT 11/M02 A2993 RMK A01 T01051016  RH  043%=      5-min Rain = 0
KSW1 140044Z 22009KT 11/M02 A2993 RMK A01 T01051017  RH  043%=      5-min Rain = 0
KSW1 140045Z 22009KT 11/M02 A2993 RMK A01 T01051018  RH  042%=      5-min Rain = 0
KSW1 140046Z 21009KT 11/M02 A2993 RMK A01 T01051016  RH  043%=      5-min Rain = 0
KSW1 140047Z 21008KT 11/M02 A2993 RMK A01 T01051015  RH  043%=      5-min Rain = 0
KSW1 140048Z 21008KT 10/M01 A2993 RMK A01 T01041014  RH  044%=      5-min Rain = 0
KSW1 140049Z 21008KT 10/M01 A2993 RMK A01 T01031013  RH  044%=      5-min Rain = 0
KSW1 140050Z 21008KT 10/M01 A2993 RMK A01 T01011013  RH  045%=      5-min Rain = 0
KSW1 140051Z 21008KT 10/M01 A2993 RMK A01 T01011014  RH  045%=      5-min Rain = 0
KSW1 140052Z 21007KT 10/M01 A2993 RMK A01 T00991013  RH  046%=      5-min Rain = 0
KSW1 140053Z 21008KT 10/M01 A2993 RMK A01 T00981014  RH  046%=      5-min Rain = 0
KSW1 140054Z 21008KT 10/M01 A2993 RMK A01 T00971013  RH  046%=      5-min Rain = 0
KSW1 140055Z 21008KT 10/M01 A2993 RMK A01 T00961013  RH  047%=      5-min Rain = 0
KSW1 140056Z 21008KT 10/M01 A2993 RMK A01 T00951013  RH  047%=      5-min Rain = 0
KSW1 140057Z 21008KT 09/M01 A2993 RMK A01 T00941012  RH  047%=      5-min Rain = 0
KSW1 140058Z 21007KT 09/M01 A2993 RMK A01 T00921013  RH  048%=      5-min Rain = 0
KSW1 140059Z 21007KT 09/M01 A2993 RMK A01 T00921012  RH  048%=      5-min Rain = 0
KSW1 140100Z 21007KT 09/M01 A2993 RMK A01 T00911012  RH  049%=      5-min Rain = 0
KSW1 140101Z 21007KT 09/M01 A2993 RMK A01 T00901012  RH  049%=      5-min Rain = 0
KSW1 140102Z 21008KT 09/M01 A2993 RMK A01 T00901013  RH  049%=      5-min Rain = 0
KSW1 140103Z 21008KT 09/M01 A2993 RMK A01 T00901012  RH  049%=      5-min Rain = 0
KSW1 140104Z 21007KT 09/M01 A2993 RMK A01 T00901012  RH  049%=      5-min Rain = 0
KSW1 140105Z 21007KT 09/M01 A2993 RMK A01 T00901012  RH  049%=      5-min Rain = 0
KSW1 140106Z 21007KT 09/M01 A2993 RMK A01 T00901011  RH  049%=      5-min Rain = 0
KSW1 140107Z 21007KT 09/M01 A2993 RMK A01 T00891011  RH  049%=      5-min Rain = 0
KSW1 140108Z 21007KT 09/M01 A2993 RMK A01 T00891011  RH  050%=      5-min Rain = 0
KSW1 140109Z 21007KT 09/M01 A2993 RMK A01 T00881011  RH  050%=      5-min Rain = 0
KSW1 140110Z 21007KT 09/M01 A2993 RMK A01 T00871010  RH  050%=      5-min Rain = 0
KSW1 140111Z 20006KT 09/M01 A2993 RMK A01 T00861009  RH  051%=      5-min Rain = 0
KSW1 140112Z 20007KT 08/M01 A2993 RMK A01 T00831009  RH  052%=      5-min Rain = 0
KSW1 140113Z 20006KT 08/M01 A2993 RMK A01 T00811010  RH  053%=      5-min Rain = 0
KSW1 140114Z 20007KT 08/M01 A2993 RMK A01 T00791010  RH  053%=      5-min Rain = 0
KSW1 140115Z 20007KT 08/M01 A2993 RMK A01 T00771010  RH  054%=      5-min Rain = 0
KSW1 140116Z 20007KT 08/M01 A2993 RMK A01 T00761010  RH  055%=      5-min Rain = 0
KSW1 140117Z 20007KT 08/M01 A2993 RMK A01 T00751010  RH  055%=      5-min Rain = 0
KSW1 140118Z 19007KT 08/M01 A2993 RMK A01 T00751010  RH  055%=      5-min Rain = 0
KSW1 140119Z 19007KT 08/M01 A2993 RMK A01 T00751010  RH  055%=      5-min Rain = 0
KSW1 140120Z 19008KT 08/M01 A2993 RMK A01 T00751011  RH  055%=      5-min Rain = 0
KSW1 140121Z 19008KT 08/M01 A2993 RMK A01 T00751010  RH  055%=      5-min Rain = 0
KSW1 140122Z 19008KT 08/M01 A2993 RMK A01 T00751011  RH  054%=      5-min Rain = 0
KSW1 140123Z 19008KT 08/M01 A2993 RMK A01 T00761011  RH  054%=      5-min Rain = 0
KSW1 140124Z 19008KT 08/M01 A2993 RMK A01 T00761010  RH  054%=      5-min Rain = 0
KSW1 140125Z 19008KT 08/M01 A2993 RMK A01 T00761009  RH  055%=      5-min Rain = 0
KSW1 140126Z 19008KT 08/M01 A2993 RMK A01 T00761010  RH  055%=      5-min Rain = 0
KSW1 140127Z 19008KT 08/M01 A2993 RMK A01 T00761010  RH  055%=      5-min Rain = 0
KSW1 140128Z 19008KT 08/M01 A2993 RMK A01 T00761010  RH  055%=      5-min Rain = 0
KSW1 140129Z 19008KT 08/M01 A2993 RMK A01 T00761010  RH  055%=      5-min Rain = 0
KSW1 140130Z 19008KT 08/M01 A2993 RMK A01 T00761010  RH  055%=      5-min Rain = 0
KSW1 140131Z 19008KT 08/M01 A2993 RMK A01 T00761009  RH  055%=      5-min Rain = 0
KSW1 140132Z 19007KT 08/M01 A2993 RMK A01 T00761009  RH  055%=      5-min Rain = 0
KSW1 140133Z 19007KT 08/M01 A2993 RMK A01 T00751009  RH  055%=      5-min Rain = 0
KSW1 140134Z 19007KT 08/M01 A2993 RMK A01 T00751009  RH  055%=      5-min Rain = 0
KSW1 140135Z 19008KT 08/M01 A2993 RMK A01 T00751009  RH  056%=      5-min Rain = 0
KSW1 140136Z 19007KT 07/M01 A2993 RMK A01 T00741008  RH  056%=      5-min Rain = 0
KSW1 140137Z 19007KT 07/M01 A2993 RMK A01 T00741008  RH  056%=      5-min Rain = 0
KSW1 140138Z 19008KT 07/M01 A2993 RMK A01 T00741008  RH  056%=      5-min Rain = 0
KSW1 140139Z 19008KT 07/M01 A2993 RMK A01 T00741008  RH  056%=      5-min Rain = 0
KSW1 140140Z 19008KT 07/M01 A2993 RMK A01 T00741008  RH  056%=      5-min Rain = 0
KSW1 140141Z 19008KT 07/M01 A2993 RMK A01 T00741007  RH  056%=      5-min Rain = 0
KSW1 140142Z 19007KT 07/M01 A2993 RMK A01 T00731007  RH  056%=      5-min Rain = 0
KSW1 140143Z 20007KT 07/M01 A2993 RMK A01 T00741007  RH  056%=      5-min Rain = 0
KSW1 140144Z 19007KT 07/M01 A2993 RMK A01 T00731008  RH  056%=      5-min Rain = 0
KSW1 140145Z 20007KT 07/M01 A2993 RMK A01 T00731008  RH  056%=      5-min Rain = 0
KSW1 140146Z 20007KT 07/M01 A2993 RMK A01 T00741008  RH  056%=      5-min Rain = 0
KSW1 140147Z 20006KT 07/M01 A2993 RMK A01 T00731009  RH  056%=      5-min Rain = 0
KSW1 140148Z 20007KT 07/M01 A2993 RMK A01 T00741008  RH  056%=      5-min Rain = 0
KSW1 140149Z 20006KT 07/M01 A2993 RMK A01 T00741008  RH  056%=      5-min Rain = 0
KSW1 140150Z 20006KT 07/M01 A2993 RMK A01 T00731008  RH  056%=      5-min Rain = 0
KSW1 140151Z 20006KT 07/M01 A2993 RMK A01 T00731008  RH  056%=      5-min Rain = 0
KSW1 140152Z 20006KT 07/M01 A2993 RMK A01 T00731009  RH  056%=      5-min Rain = 0
KSW1 140153Z 20006KT 07/M01 A2993 RMK A01 T00741009  RH  056%=      5-min Rain = 0
KSW1 140154Z 20006KT 07/M01 A2993 RMK A01 T00741010  RH  055%=      5-min Rain = 0
KSW1 140155Z 20006KT 07/M01 A2993 RMK A01 T00741010  RH  055%=      5-min Rain = 0
KSW1 140156Z 20006KT 07/M01 A2993 RMK A01 T00741009  RH  055%=      5-min Rain = 0
KSW1 140157Z 20006KT 07/M01 A2993 RMK A01 T00741009  RH  056%=      5-min Rain = 0
KSW1 140158Z 20006KT 07/M01 A2993 RMK A01 T00731010  RH  056%=      5-min Rain = 0
KSW1 140159Z 20006KT 07/M01 A2993 RMK A01 T00731010  RH  056%=      5-min Rain = 0
KSW1 140200Z 20006KT 07/M01 A2993 RMK A01 T00731010  RH  056%=      5-min Rain = 0
KSW1 140201Z 20006KT 07/M01 A2993 RMK A01 T00731010  RH  055%=      5-min Rain = 0
KSW1 140202Z 20006KT 07/M01 A2993 RMK A01 T00731011  RH  055%=      5-min Rain = 0
KSW1 140203Z 20006KT 07/M01 A2993 RMK A01 T00731012  RH  055%=      5-min Rain = 0
KSW1 140204Z 20006KT 07/M01 A2993 RMK A01 T00741011  RH  055%=      5-min Rain = 0
KSW1 140205Z 20006KT 07/M01 A2993 RMK A01 T00741011  RH  055%=      5-min Rain = 0
KSW1 140206Z 20006KT 07/M01 A2993 RMK A01 T00741012  RH  054%=      5-min Rain = 0
KSW1 140207Z 20006KT 07/M01 A2993 RMK A01 T00741011  RH  055%=      5-min Rain = 0
KSW1 140208Z 20006KT 07/M01 A2993 RMK A01 T00731011  RH  055%=      5-min Rain = 0
KSW1 140209Z 20006KT 07/M01 A2993 RMK A01 T00731012  RH  055%=      5-min Rain = 0
KSW1 140210Z 20006KT 07/M01 A2993 RMK A01 T00731012  RH  055%=      5-min Rain = 0
KSW1 140211Z 20006KT 07/M01 A2993 RMK A01 T00741013  RH  054%=      5-min Rain = 0
KSW1 140212Z 20007KT 07/M01 A2993 RMK A01 T00741013  RH  054%=      5-min Rain = 0
KSW1 140213Z 21007KT 07/M01 A2993 RMK A01 T00741012  RH  054%=      5-min Rain = 0
KSW1 140214Z 20006KT 07/M01 A2992 RMK A01 T00741012  RH  054%=      5-min Rain = 0
KSW1 140215Z 20006KT 07/M01 A2992 RMK A01 T00731012  RH  055%=      5-min Rain = 0
KSW1 140216Z 20006KT 07/M01 A2992 RMK A01 T00721012  RH  055%=      5-min Rain = 0
KSW1 140217Z 20006KT 07/M01 A2992 RMK A01 T00711012  RH  055%=      5-min Rain = 0
KSW1 140218Z 20007KT 07/M01 A2992 RMK A01 T00711012  RH  056%=      5-min Rain = 0
KSW1 140219Z 20007KT 07/M01 A2992 RMK A01 T00711013  RH  055%=      5-min Rain = 0
KSW1 140220Z 20007KT 07/M01 A2992 RMK A01 T00711013  RH  055%=      5-min Rain = 0
KSW1 140221Z 20007KT 07/M01 A2992 RMK A01 T00721013  RH  055%=      5-min Rain = 0
KSW1 140222Z 20006KT 07/M01 A2992 RMK A01 T00721013  RH  055%=      5-min Rain = 0
KSW1 140223Z 20007KT 07/M01 A2992 RMK A01 T00711013  RH  055%=      5-min Rain = 0
KSW1 140224Z 20008KT 07/M01 A2992 RMK A01 T00711013  RH  055%=      5-min Rain = 0
KSW1 140225Z 21008KT 07/M01 A2992 RMK A01 T00731013  RH  054%=      5-min Rain = 0
KSW1 140226Z 21008KT 08/M01 A2992 RMK A01 T00751013  RH  054%=      5-min Rain = 0
KSW1 140227Z 21008KT 08/M01 A2992 RMK A01 T00761012  RH  054%=      5-min Rain = 0
KSW1 140228Z 21008KT 08/M01 A2992 RMK A01 T00781013  RH  053%=      5-min Rain = 0
KSW1 140229Z 21009KT 08/M01 A2992 RMK A01 T00801013  RH  052%=      5-min Rain = 0
KSW1 140230Z 21009KT 08/M01 A2992 RMK A01 T00831013  RH  051%=      5-min Rain = 0
KSW1 140231Z 20009KT 09/M01 A2992 RMK A01 T00861013  RH  050%=      5-min Rain = 0
KSW1 140232Z 21009KT 09/M01 A2992 RMK A01 T00881013  RH  049%=      5-min Rain = 0
KSW1 140233Z 21009KT 09/M01 A2992 RMK A01 T00891014  RH  048%=      5-min Rain = 0
KSW1 140234Z 21009KT 09/M02 A2992 RMK A01 T00901015  RH  048%=      5-min Rain = 0
KSW1 140235Z 21009KT 09/M02 A2992 RMK A01 T00921015  RH  047%=      5-min Rain = 0
KSW1 140236Z 21009KT 09/M01 A2992 RMK A01 T00921014  RH  047%=      5-min Rain = 0
KSW1 140237Z 21009KT 09/M01 A2992 RMK A01 T00921014  RH  047%=      5-min Rain = 0
KSW1 140238Z 21009KT 09/M02 A2992 RMK A01 T00921015  RH  047%=      5-min Rain = 0
KSW1 140239Z 21009KT 09/M02 A2991 RMK A01 T00921016  RH  047%=      5-min Rain = 0
KSW1 140240Z 21009KT 09/M02 A2991 RMK A01 T00931015  RH  047%=      5-min Rain = 0
KSW1 140241Z 21009KT 09/M02 A2991 RMK A01 T00931016  RH  046%=      5-min Rain = 0
KSW1 140242Z 21009KT 09/M02 A2991 RMK A01 T00931016  RH  046%=      5-min Rain = 0
KSW1 140243Z 21010KT 09/M02 A2991 RMK A01 T00931015  RH  047%=      5-min Rain = 0
KSW1 140244Z 21009KT 09/M02 A2991 RMK A01 T00931016  RH  047%=      5-min Rain = 0
KSW1 140245Z 21009KT 09/M02 A2991 RMK A01 T00931015  RH  047%=      5-min Rain = 0
KSW1 140246Z 21008KT 09/M02 A2991 RMK A01 T00931017  RH  046%=      5-min Rain = 0
KSW1 140247Z 21009KT 09/M02 A2991 RMK A01 T00941018  RH  046%=      5-min Rain = 0
KSW1 140248Z 21009KT 09/M02 A2991 RMK A01 T00941018  RH  046%=      5-min Rain = 0
KSW1 140249Z 21009KT 09/M02 A2992 RMK A01 T00941019  RH  045%=      5-min Rain = 0
KSW1 140250Z 21009KT 10/M02 A2992 RMK A01 T00961019  RH  045%=      5-min Rain = 0
KSW1 140251Z 21009KT 10/M02 A2992 RMK A01 T00961018  RH  045%=      5-min Rain = 0
KSW1 140252Z 21009KT 10/M02 A2992 RMK A01 T00951019  RH  045%=      5-min Rain = 0
KSW1 140253Z 21009KT 10/M02 A2992 RMK A01 T00951020  RH  044%=      5-min Rain = 0
KSW1 140254Z 21008KT 10/M02 A2992 RMK A01 T00961019  RH  044%=      5-min Rain = 0
KSW1 140255Z 21009KT 10/M02 A2991 RMK A01 T00961019  RH  045%=      5-min Rain = 0
KSW1 140256Z 21009KT 10/M02 A2991 RMK A01 T00951020  RH  044%=      5-min Rain = 0
KSW1 140257Z 21009KT 10/M02 A2991 RMK A01 T00951020  RH  044%=      5-min Rain = 0
KSW1 140258Z 21009KT 10/M02 A2991 RMK A01 T00961019  RH  045%=      5-min Rain = 0
KSW1 140259Z 21009KT 10/M02 A2991 RMK A01 T00951019  RH  045%=      5-min Rain = 0
KSW1 140300Z 21009KT 09/M02 A2991 RMK A01 T00941020  RH  045%=      5-min Rain = 0
KSW1 140301Z 21009KT 09/M02 A2991 RMK A01 T00941021  RH  044%=      5-min Rain = 0
KSW1 140302Z 21009KT 09/M02 A2991 RMK A01 T00941020  RH  045%=      5-min Rain = 0
KSW1 140303Z 21009KT 09/M02 A2991 RMK A01 T00941020  RH  045%=      5-min Rain = 0
KSW1 140304Z 21010KT 09/M02 A2991 RMK A01 T00941021  RH  044%=      5-min Rain = 0
KSW1 140305Z 21010KT 09/M02 A2991 RMK A01 T00941021  RH  045%=      5-min Rain = 0
KSW1 140306Z 21010KT 09/M02 A2991 RMK A01 T00941021  RH  044%=      5-min Rain = 0
KSW1 140307Z 21010KT 09/M02 A2991 RMK A01 T00941021  RH  044%=      5-min Rain = 0
KSW1 140308Z 21010KT 10/M02 A2991 RMK A01 T00951023  RH  044%=      5-min Rain = 0
KSW1 140309Z 21009KT 10/M02 A2991 RMK A01 T00961023  RH  043%=      5-min Rain = 0
KSW1 140310Z 21010KT 10/M02 A2991 RMK A01 T00961023  RH  043%=      5-min Rain = 0
KSW1 140311Z 21009KT 10/M03 A2991 RMK A01 T00971025  RH  042%=      5-min Rain = 0
KSW1 140312Z 21009KT 10/M03 A2991 RMK A01 T00971025  RH  042%=      5-min Rain = 0
KSW1 140313Z 21010KT 10/M02 A2991 RMK A01 T00981024  RH  043%=      5-min Rain = 0
KSW1 140314Z 21010KT 10/M02 A2991 RMK A01 T00971024  RH  043%=      5-min Rain = 0
KSW1 140315Z 21009KT 10/M03 A2991 RMK A01 T00971025  RH  042%=      5-min Rain = 0
KSW1 140316Z 21009KT 10/M02 A2991 RMK A01 T00971024  RH  043%=      5-min Rain = 0
KSW1 140317Z 21010KT 10/M02 A2991 RMK A01 T00961024  RH  043%=      5-min Rain = 0
KSW1 140318Z 21010KT 10/M03 A2991 RMK A01 T00951025  RH  043%=      5-min Rain = 0
KSW1 140319Z 21010KT 10/M03 A299 RMK A01 T00951026  RH  043%=      5-min Rain = 0
KSW1 140320Z 21010KT 10/M03 A299 RMK A01 T00961025  RH  042%=      5-min Rain = 0
KSW1 140321Z 21009KT 10/M03 A299 RMK A01 T00961026  RH  042%=      5-min Rain = 0
KSW1 140322Z 21011KT 10/M03 A299 RMK A01 T00971028  RH  041%=      5-min Rain = 0
KSW1 140323Z 21010KT 10/M03 A299 RMK A01 T00981028  RH  041%=      5-min Rain = 0
KSW1 140324Z 21010KT 10/M03 A299 RMK A01 T00991029  RH  041%=      5-min Rain = 0
KSW1 140325Z 21009KT 10/M03 A299 RMK A01 T00991029  RH  041%=      5-min Rain = 0
KSW1 140326Z 21010KT 10/M03 A299 RMK A01 T00991029  RH  040%=      5-min Rain = 0
KSW1 140327Z 21009KT 10/M03 A299 RMK A01 T00991029  RH  040%=      5-min Rain = 0
KSW1 140328Z 21010KT 10/M03 A299 RMK A01 T00991028  RH  041%=      5-min Rain = 0
KSW1 140329Z 21009KT 10/M03 A299 RMK A01 T00981028  RH  041%=      5-min Rain = 0
KSW1 140330Z 21009KT 10/M03 A299 RMK A01 T00981028  RH  041%=      5-min Rain = 0
KSW1 140331Z 21009KT 10/M03 A299 RMK A01 T00981028  RH  041%=      5-min Rain = 0
KSW1 140332Z 21010KT 10/M03 A299 RMK A01 T00971030  RH  041%=      5-min Rain = 0
KSW1 140333Z 21009KT 10/M03 A299 RMK A01 T00981030  RH  040%=      5-min Rain = 0
KSW1 140334Z 21008KT 10/M03 A299 RMK A01 T00981029  RH  041%=      5-min Rain = 0
KSW1 140335Z 21009KT 10/M03 A299 RMK A01 T00971028  RH  041%=      5-min Rain = 0
KSW1 140336Z 20010KT 10/M03 A299 RMK A01 T00961029  RH  041%=      5-min Rain = 0
KSW1 140337Z 20009KT 10/M03 A299 RMK A01 T00961031  RH  041%=      5-min Rain = 0
KSW1 140338Z 21009KT 10/M03 A299 RMK A01 T00971030  RH  041%=      5-min Rain = 0
KSW1 140339Z 20009KT 10/M03 A299 RMK A01 T00971030  RH  041%=      5-min Rain = 0
KSW1 140340Z 20008KT 10/M03 A299 RMK A01 T00971032  RH  040%=      5-min Rain = 0
KSW1 140341Z 20009KT 10/M03 A299 RMK A01 T00971030  RH  041%=      5-min Rain = 0
KSW1 140342Z 20008KT 10/M03 A299 RMK A01 T00971031  RH  040%=      5-min Rain = 0
KSW1 140343Z 21008KT 10/M03 A299 RMK A01 T00961030  RH  041%=      5-min Rain = 0
KSW1 140344Z 20008KT 10/M03 A299 RMK A01 T00951031  RH  041%=      5-min Rain = 0
KSW1 140345Z 20008KT 10/M03 A299 RMK A01 T00951032  RH  041%=      5-min Rain = 0
KSW1 140346Z 20008KT 10/M03 A299 RMK A01 T00951031  RH  041%=      5-min Rain = 0
KSW1 140347Z 21008KT 10/M03 A299 RMK A01 T00951031  RH  041%=      5-min Rain = 0
KSW1 140348Z 21007KT 09/M03 A299 RMK A01 T00941031  RH  041%=      5-min Rain = 0
KSW1 140349Z 20007KT 09/M03 A299 RMK A01 T00941032  RH  041%=      5-min Rain = 0
KSW1 140350Z 21007KT 09/M03 A299 RMK A01 T00941033  RH  041%=      5-min Rain = 0
KSW1 140351Z 20007KT 09/M03 A299 RMK A01 T00941032  RH  041%=      5-min Rain = 0
KSW1 140352Z 20007KT 09/M03 A299 RMK A01 T00941032  RH  041%=      5-min Rain = 0
KSW1 140353Z 21007KT 09/M03 A299 RMK A01 T00931034  RH  041%=      5-min Rain = 0
KSW1 140354Z 21007KT 09/M03 A299 RMK A01 T00931034  RH  040%=      5-min Rain = 0
KSW1 140355Z 21008KT 09/M03 A2989 RMK A01 T00941033  RH  041%=      5-min Rain = 0
KSW1 140356Z 21008KT 09/M03 A2989 RMK A01 T00941034  RH  040%=      5-min Rain = 0
KSW1 140357Z 21008KT 09/M04 A2989 RMK A01 T00941037  RH  040%=      5-min Rain = 0
KSW1 140358Z 22008KT 10/M04 A2989 RMK A01 T00961038  RH  038%=      5-min Rain = 0
KSW1 140359Z 21008KT 10/M04 A2989 RMK A01 T00981038  RH  038%=      5-min Rain = 0
KSW1 140400Z 22007KT 10/M04 A2989 RMK A01 T00991038  RH  038%=      5-min Rain = 0
KSW1 140401Z 22006KT 10/M04 A2989 RMK A01 T01001038  RH  038%=      5-min Rain = 0
KSW1 140402Z 21007KT 10/M04 A2989 RMK A01 T00991038  RH  038%=      5-min Rain = 0
KSW1 140403Z 21007KT 10/M04 A2989 RMK A01 T00991039  RH  038%=      5-min Rain = 0
KSW1 140404Z 21008KT 10/M04 A2989 RMK A01 T00991038  RH  038%=      5-min Rain = 0
KSW1 140405Z 21007KT 10/M04 A2989 RMK A01 T00991040  RH  037%=      5-min Rain = 0
KSW1 140406Z 21008KT 10/M04 A2989 RMK A01 T01001039  RH  037%=      5-min Rain = 0
KSW1 140407Z 21008KT 10/M04 A2989 RMK A01 T00991040  RH  037%=      5-min Rain = 0
KSW1 140408Z 22008KT 10/M04 A2989 RMK A01 T01001039  RH  037%=      5-min Rain = 0
KSW1 140409Z 21008KT 10/M04 A2989 RMK A01 T01001040  RH  037%=      5-min Rain = 0
KSW1 140410Z 21007KT 10/M04 A2989 RMK A01 T01001038  RH  038%=      5-min Rain = 0
KSW1 140411Z 21008KT 10/M04 A2989 RMK A01 T00991038  RH  038%=      5-min Rain = 0
KSW1 140412Z 21008KT 10/M04 A2989 RMK A01 T00981038  RH  038%=      5-min Rain = 0
KSW1 140413Z 21007KT 10/M04 A2989 RMK A01 T00981039  RH  038%=      5-min Rain = 0
KSW1 140414Z 21008KT 10/M04 A2989 RMK A01 T00971037  RH  039%=      5-min Rain = 0
KSW1 140415Z 21008KT 10/M04 A2989 RMK A01 T00961037  RH  039%=      5-min Rain = 0
KSW1 140416Z 21008KT 10/M04 A2989 RMK A01 T00951037  RH  039%=      5-min Rain = 0
KSW1 140417Z 21007KT 10/M04 A2989 RMK A01 T00951038  RH  039%=      5-min Rain = 0
KSW1 140418Z 21008KT 10/M04 A2989 RMK A01 T00951038  RH  039%=      5-min Rain = 0
KSW1 140419Z 21008KT 10/M04 A2989 RMK A01 T00951039  RH  039%=      5-min Rain = 0
KSW1 140420Z 21007KT 10/M04 A2989 RMK A01 T00951039  RH  038%=      5-min Rain = 0
KSW1 140421Z 21008KT 10/M04 A2989 RMK A01 T00951039  RH  039%=      5-min Rain = 0
KSW1 140422Z 21007KT 10/M04 A2989 RMK A01 T00961038  RH  039%=      5-min Rain = 0
KSW1 140423Z 21008KT 10/M04 A2989 RMK A01 T00951040  RH  038%=      5-min Rain = 0
KSW1 140424Z 21008KT 10/M04 A2989 RMK A01 T00961039  RH  039%=      5-min Rain = 0
KSW1 140425Z 21008KT 10/M04 A2989 RMK A01 T00951039  RH  039%=      5-min Rain = 0
KSW1 140426Z 22007KT 10/M04 A2989 RMK A01 T00951038  RH  039%=      5-min Rain = 0
KSW1 140427Z 21008KT 10/M04 A2989 RMK A01 T00951040  RH  038%=      5-min Rain = 0
KSW1 140428Z 21007KT 10/M04 A2989 RMK A01 T00951040  RH  038%=      5-min Rain = 0
KSW1 140429Z 21007KT 10/M04 A2989 RMK A01 T00951040  RH  038%=      5-min Rain = 0
KSW1 140430Z 21006KT 10/M04 A2989 RMK A01 T00951040  RH  038%=      5-min Rain = 0
KSW1 140431Z 21006KT 10/M04 A2989 RMK A01 T00951040  RH  039%=      5-min Rain = 0
KSW1 140432Z 22007KT 10/M04 A2989 RMK A01 T00951042  RH  038%=      5-min Rain = 0
KSW1 140433Z 22006KT 10/M04 A2989 RMK A01 T00951042  RH  038%=      5-min Rain = 0
KSW1 140434Z 22006KT 10/M04 A2989 RMK A01 T00951042  RH  038%=      5-min Rain = 0
KSW1 140435Z 22006KT 10/M04 A2988 RMK A01 T00951041  RH  038%=      5-min Rain = 0
KSW1 140436Z 22006KT 09/M04 A2988 RMK A01 T00941042  RH  038%=      5-min Rain = 0
KSW1 140437Z 23006KT 09/M04 A2988 RMK A01 T00941041  RH  038%=      5-min Rain = 0
KSW1 140438Z 23005KT 09/M04 A2988 RMK A01 T00931040  RH  039%=      5-min Rain = 0
KSW1 140439Z 23006KT 09/M04 A2988 RMK A01 T00921040  RH  039%=      5-min Rain = 0
KSW1 140440Z 23006KT 09/M04 A2988 RMK A01 T00911041  RH  039%=      5-min Rain = 0
KSW1 140441Z 23006KT 09/M04 A2988 RMK A01 T00911041  RH  039%=      5-min Rain = 0
KSW1 140442Z 23006KT 09/M04 A2988 RMK A01 T00911041  RH  039%=      5-min Rain = 0
KSW1 140443Z 23005KT 09/M04 A2988 RMK A01 T00901042  RH  039%=      5-min Rain = 0
KSW1 140444Z 22005KT 09/M04 A2988 RMK A01 T00901042  RH  039%=      5-min Rain = 0
KSW1 140445Z 23006KT 09/M04 A2988 RMK A01 T00901042  RH  039%=      5-min Rain = 0
KSW1 140446Z 22006KT 09/M04 A2988 RMK A01 T00901042  RH  039%=      5-min Rain = 0
KSW1 140447Z 23005KT 09/M04 A2988 RMK A01 T00901044  RH  039%=      5-min Rain = 0
KSW1 140448Z 23006KT 09/M04 A2988 RMK A01 T00901044  RH  038%=      5-min Rain = 0
KSW1 140449Z 23005KT 09/M04 A2988 RMK A01 T00911043  RH  039%=      5-min Rain = 0
KSW1 140450Z 23007KT 09/M04 A2988 RMK A01 T00911043  RH  039%=      5-min Rain = 0
KSW1 140451Z 23006KT 09/M04 A2988 RMK A01 T00901043  RH  039%=      5-min Rain = 0
KSW1 140452Z 23005KT 09/M04 A2988 RMK A01 T00901043  RH  039%=      5-min Rain = 0
KSW1 140453Z 22007KT 09/M04 A2988 RMK A01 T00901044  RH  038%=      5-min Rain = 0
KSW1 140454Z 23005KT 09/M04 A2988 RMK A01 T00911043  RH  039%=      5-min Rain = 0
KSW1 140455Z 23005KT 09/M04 A2988 RMK A01 T00901042  RH  039%=      5-min Rain = 0
KSW1 140456Z 22006KT 09/M04 A2988 RMK A01 T00901043  RH  039%=      5-min Rain = 0
KSW1 140457Z 23005KT 09/M04 A2988 RMK A01 T00901044  RH  038%=      5-min Rain = 0
KSW1 140458Z 22005KT 09/M04 A2988 RMK A01 T00911043  RH  039%=      5-min Rain = 0
KSW1 140459Z 22005KT 09/M04 A2988 RMK A01 T00901042  RH  039%=      5-min Rain = 0
KSW1 140500Z 22006KT 09/M04 A2988 RMK A01 T00891043  RH  039%=      5-min Rain = 0
KSW1 140501Z 22006KT 09/M05 A2988 RMK A01 T00901045  RH  038%=      5-min Rain = 0
KSW1 140502Z 22006KT 09/M04 A2988 RMK A01 T00921044  RH  038%=      5-min Rain = 0
KSW1 140503Z 22006KT 09/M05 A2988 RMK A01 T00921045  RH  038%=      5-min Rain = 0
KSW1 140504Z 22006KT 09/M04 A2988 RMK A01 T00931044  RH  038%=      5-min Rain = 0
KSW1 140505Z 22006KT 09/M04 A2988 RMK A01 T00931043  RH  038%=      5-min Rain = 0
KSW1 140506Z 22006KT 09/M04 A2988 RMK A01 T00921044  RH  038%=      5-min Rain = 0
KSW1 140507Z 22006KT 09/M05 A2988 RMK A01 T00931045  RH  037%=      5-min Rain = 0
KSW1 140508Z 22006KT 09/M05 A2988 RMK A01 T00931045  RH  038%=      5-min Rain = 0
KSW1 140509Z 23006KT 09/M05 A2988 RMK A01 T00931045  RH  037%=      5-min Rain = 0
KSW1 140510Z 23006KT 09/M04 A2988 RMK A01 T00931043  RH  038%=      5-min Rain = 0
KSW1 140511Z 23007KT 09/M04 A2988 RMK A01 T00921043  RH  038%=      5-min Rain = 0
KSW1 140512Z 23006KT 09/M04 A2988 RMK A01 T00911043  RH  038%=      5-min Rain = 0
KSW1 140513Z 23006KT 09/M04 A2988 RMK A01 T00911043  RH  039%=      5-min Rain = 0
KSW1 140514Z 23006KT 09/M04 A2988 RMK A01 T00901042  RH  039%=      5-min Rain = 0
KSW1 140515Z 23007KT 09/M04 A2988 RMK A01 T00891043  RH  039%=      5-min Rain = 0
KSW1 140516Z 23008KT 09/M04 A2988 RMK A01 T00891044  RH  039%=      5-min Rain = 0
KSW1 140517Z 23007KT 09/M04 A2988 RMK A01 T00901043  RH  039%=      5-min Rain = 0
KSW1 140518Z 23007KT 09/M04 A2988 RMK A01 T00901041  RH  040%=      5-min Rain = 0
KSW1 140519Z 22007KT 09/M04 A2988 RMK A01 T00881042  RH  040%=      5-min Rain = 0
KSW1 140520Z 23007KT 09/M04 A2988 RMK A01 T00881044  RH  039%=      5-min Rain = 0
KSW1 140521Z 23008KT 09/M04 A2988 RMK A01 T00891043  RH  039%=      5-min Rain = 0
KSW1 140522Z 23008KT 09/M04 A2988 RMK A01 T00901043  RH  039%=      5-min Rain = 0
KSW1 140523Z 23008KT 09/M04 A2988 RMK A01 T00901044  RH  039%=      5-min Rain = 0
KSW1 140524Z 22007KT 09/M04 A2988 RMK A01 T00901044  RH  039%=      5-min Rain = 0
KSW1 140525Z 23008KT 09/M04 A2988 RMK A01 T00901043  RH  039%=      5-min Rain = 0
KSW1 140526Z 23008KT 09/M04 A2988 RMK A01 T00901043  RH  039%=      5-min Rain = 0
KSW1 140527Z 23008KT 09/M04 A2988 RMK A01 T00901042  RH  039%=      5-min Rain = 0
KSW1 140528Z 23009KT 09/M04 A2988 RMK A01 T00891042  RH  039%=      5-min Rain = 0
KSW1 140529Z 22008KT 09/M04 A2988 RMK A01 T00891043  RH  039%=      5-min Rain = 0
KSW1 140530Z 22008KT 09/M05 A2987 RMK A01 T00901045  RH  038%=      5-min Rain = 0
KSW1 140531Z 22007KT 09/M05 A2987 RMK A01 T00911045  RH  038%=      5-min Rain = 0
KSW1 140532Z 22008KT 09/M04 A2987 RMK A01 T00911044  RH  038%=      5-min Rain = 0
KSW1 140533Z 22009KT 09/M05 A2987 RMK A01 T00911046  RH  038%=      5-min Rain = 0
KSW1 140534Z 22008KT 09/M05 A2987 RMK A01 T00921047  RH  037%=      5-min Rain = 0
KSW1 140535Z 22009KT 09/M05 A2988 RMK A01 T00921046  RH  037%=      5-min Rain = 0
KSW1 140536Z 22009KT 09/M05 A2987 RMK A01 T00921047  RH  037%=      5-min Rain = 0
KSW1 140537Z 22009KT 09/M05 A2987 RMK A01 T00931048  RH  037%=      5-min Rain = 0
KSW1 140538Z 23008KT 09/M05 A2987 RMK A01 T00941046  RH  037%=      5-min Rain = 0
KSW1 140539Z 23009KT 09/M05 A2987 RMK A01 T00931047  RH  037%=      5-min Rain = 0
KSW1 140540Z 23009KT 09/M05 A2987 RMK A01 T00941048  RH  036%=      5-min Rain = 0
KSW1 140541Z 23009KT 09/M05 A2987 RMK A01 T00941047  RH  037%=      5-min Rain = 0
KSW1 140542Z 23009KT 09/M05 A2988 RMK A01 T00931047  RH  037%=      5-min Rain = 0
KSW1 140543Z 23008KT 09/M05 A2987 RMK A01 T00921045  RH  038%=      5-min Rain = 0
KSW1 140544Z 23008KT 09/M05 A2988 RMK A01 T00911046  RH  038%=      5-min Rain = 0
KSW1 140545Z 23008KT 09/M05 A2987 RMK A01 T00901046  RH  038%=      5-min Rain = 0
KSW1 140546Z 23008KT 09/M05 A2987 RMK A01 T00901046  RH  038%=      5-min Rain = 0
KSW1 140547Z 23008KT 09/M05 A2987 RMK A01 T00901046  RH  038%=      5-min Rain = 0
KSW1 140548Z 23008KT 09/M05 A2987 RMK A01 T00901047  RH  038%=      5-min Rain = 0
KSW1 140549Z 23008KT 09/M05 A2987 RMK A01 T00901047  RH  038%=      5-min Rain = 0
KSW1 140550Z 22008KT 09/M05 A2987 RMK A01 T00891046  RH  038%=      5-min Rain = 0
KSW1 140551Z 23007KT 09/M05 A2987 RMK A01 T00891047  RH  038%=      5-min Rain = 0
KSW1 140552Z 23009KT 09/M05 A2987 RMK A01 T00881047  RH  038%=      5-min Rain = 0
KSW1 140553Z 23009KT 09/M05 A2987 RMK A01 T00891049  RH  037%=      5-min Rain = 0
KSW1 140554Z 23009KT 09/M05 A2987 RMK A01 T00901051  RH  037%=      5-min Rain = 0
KSW1 140555Z 24008KT 09/M05 A2987 RMK A01 T00921049  RH  037%=      5-min Rain = 0
KSW1 140556Z 23009KT 09/M05 A2987 RMK A01 T00911049  RH  037%=      5-min Rain = 0
KSW1 140557Z 24009KT 09/M05 A2987 RMK A01 T00911049  RH  037%=      5-min Rain = 0
KSW1 140558Z 24010KT 09/M05 A2987 RMK A01 T00911049  RH  037%=      5-min Rain = 0
KSW1 140559Z 24009KT 09/M05 A2987 RMK A01 T00911048  RH  037%=      5-min Rain = 0

Page generated in 0.0652 seconds.